GFSGBSN_prec_cthk_000.txt.gz
RH
30 32 33 32 34 34 36 32 28 31 32 30 28 24 21 13 14 13 14 17 16 18 18 17 17 14 13 14 16 15 13 13 12 12 12 11 9 11 12 11 10 12 15 17 17 16 15
33 35 34 34 35 35 36 31 28 28 28 23 21 16 14 14 13 14 17 16 17 17 18 19 18 14 13 14 16 15 14 14 15 15 14 12 11 11 11 10 12 14 15 18 19 19 17
36 38 35 37 37 35 34 29 26 23 21 18 16 15 14 14 15 17 16 16 16 16 18 18 15 14 13 14 14 14 14 14 13 14 15 16 16 16 16 17 17 17 18 18 19 19 19
41 39 37 38 37 33 29 27 25 23 21 19 18 16 15 15 17 17 16 16 15 18 18 16 14 13 13 13 12 12 12 13 13 14 15 17 18 18 18 17 18 18 18 20 20 21 21
43 41 39 38 33 29 28 26 24 23 21 20 18 16 16 17 17 16 16 15 17 17 17 15 13 13 12 12 11 10 9 9 13 14 16 17 17 16 14 17 20 20 18 19 21 22 24
42 41 39 35 31 28 26 24 23 22 21 20 18 18 18 18 17 17 16 16 16 16 15 15 15 13 12 10 10 9 7 10 13 14 15 17 18 17 18 18 18 20 18 19 19 21 24
43 41 37 32 29 26 23 22 22 22 21 19 18 18 18 17 18 17 16 16 16 15 15 15 15 13 10 10 9 7 7 11 12 13 15 16 19 21 20 18 19 20 21 23 20 21 23
46 42 37 32 28 25 22 21 21 21 21 19 18 17 16 17 17 15 14 15 17 16 13 14 12 9 10 10 9 8 8 11 12 14 14 16 19 19 20 20 19 21 23 22 22 23 26
49 44 39 33 29 24 23 19 19 19 19 18 16 15 16 17 15 14 14 14 16 15 13 13 13 12 12 13 12 12 12 15 16 16 17 18 19 19 19 22 24 23 22 24 26 27 29
49 45 40 35 31 26 23 20 18 17 17 16 15 14 14 16 14 14 16 15 15 16 19 16 14 14 13 13 14 17 18 19 21 20 21 23 21 23 24 25 26 27 24 26 28 31 34
47 46 40 36 32 28 25 22 19 17 15 15 14 14 14 15 16 16 17 16 15 21 29 20 18 17 16 14 16 20 22 22 25 25 25 26 27 29 30 29 29 29 28 27 29 33 35
45 43 40 36 33 30 26 24 21 18 16 15 14 14 12 13 12 16 15 14 19 31 31 23 21 22 20 21 23 25 25 26 28 30 31 32 31 32 34 33 32 29 29 30 36 39 44
43 42 40 36 33 31 28 26 24 21 17 15 14 13 13 16 15 15 14 17 29 34 26 24 22 22 22 26 28 30 31 31 34 28 37 36 35 36 36 36 35 34 34 41 45 52 51
42 39 39 36 34 32 29 27 26 24 21 18 17 16 15 14 13 15 19 32 27 28 25 25 25 26 29 29 33 35 35 38 36 38 46 47 42 40 39 37 40 40 42 52 47 61 56
43 40 38 37 34 33 30 28 27 26 25 23 20 17 16 16 16 18 29 37 33 32 29 29 30 32 34 34 34 36 39 44 43 43 45 54 46 43 42 43 43 44 50 49 58 64 64
45 40 37 36 35 33 32 30 29 27 27 26 24 22 19 21 22 28 34 34 30 31 33 32 34 35 37 41 42 45 45 46 44 45 44 47 52 45 45 45 45 46 47 54 60 68 67
47 42 37 35 36 35 35 32 32 30 30 30 28 24 28 28 31 33 36 33 33 36 37 39 41 43 46 47 47 47 48 46 46 46 43 43 45 40 41 46 49 50 55 56 57 66 73
46 43 38 35 36 37 36 36 36 35 33 36 30 30 33 35 34 36 34 34 38 39 39 41 42 43 45 46 48 48 48 47 47 46 45 43 45 46 38 43 48 50 53 54 62 62 73
43 38 39 36 34 37 37 38 40 43 43 41 33 35 35 37 41 43 41 41 40 39 40 41 44 46 47 48 50 51 51 50 47 44 42 38 44 48 37 46 48 51 52 55 62 69 73
44 41 34 36 34 34 36 38 40 45 44 40 36 42 39 40 42 43 41 39 41 41 41 42 44 44 45 46 45 45 43 41 40 40 41 42 48 47 51 42 45 51 51 56 65 75 72
43 41 39 32 35 33 34 34 35 37 39 38 37 42 42 45 44 42 39 38 40 39 39 40 41 40 40 43 42 43 42 43 43 43 45 48 52 50 50 49 50 49 52 59 71 67 76
42 39 39 34 32 34 33 32 33 33 36 36 36 41 41 42 41 39 41 38 40 38 36 37 37 38 38 39 38 39 38 37 38 40 44 48 52 54 54 56 59 58 57 64 65 65 67
41 38 37 34 31 33 33 34 33 33 32 33 34 36 38 44 40 39 39 36 36 35 35 34 34 37 38 38 37 36 35 37 42 45 49 55 61 67 62 61 64 54 52 63 62 60 59
44 40 38 34 32 33 34 34 35 34 34 33 32 32 33 41 39 37 34 33 33 33 33 33 34 35 37 38 37 37 38 40 45 48 52 63 68 74 77 75 84 54 55 61 61 60 57
48 44 40 37 35 35 35 36 37 36 35 34 34 32 30 37 36 32 31 31 31 32 33 34 36 36 37 38 41 41 45 42 47 53 57 63 70 78 82 86 77 61 58 60 63 61 60
55 52 47 42 39 38 38 38 39 39 38 38 35 34 32 31 35 31 33 33 36 36 35 36 36 37 40 44 47 54 58 59 58 57 67 71 76 84 90 95 91 63 66 67 70 74 73
63 60 58 53 47 43 41 41 40 40 40 40 38 37 35 33 32 33 32 34 32 33 35 36 39 42 45 53 62 67 70 67 72 70 69 78 82 86 90 96 82 66 70 74 85 79 78
65 66 65 63 59 54 49 45 43 42 43 43 42 41 40 38 37 35 34 32 32 33 38 39 47 51 57 63 67 72 76 74 75 69 71 75 80 82 90 93 85 72 79 85 80 75 79
65 65 66 67 65 62 59 54 49 47 46 45 45 45 44 43 39 38 36 36 36 38 42 45 46 50 56 62 69 75 83 82 79 82 73 81 73 83 85 85 73 76 86 85 83 84 84

GFSGBSN_prec_cthk_003.txt.gz
RH
30 30 31 32 33 34 35 36 32 32 32 34 33 32 29 20 13 13 15 16 19 20 19 17 15 13 13 15 16 16 15 15 16 16 14 12 12 13 13 12 10 10 12 14 14 14 14
31 32 34 33 36 35 36 35 30 36 34 32 27 22 18 14 15 15 17 18 21 20 20 18 16 14 14 16 18 16 16 15 16 16 15 12 10 10 10 10 11 12 14 16 17 18 16
33 34 35 35 37 36 36 33 30 29 24 21 19 15 16 15 16 18 19 21 21 22 21 19 16 15 15 16 17 16 14 15 16 16 15 14 13 12 12 12 16 16 16 17 18 20 21
36 38 36 36 37 36 35 32 28 23 20 18 18 18 17 17 19 19 19 19 21 20 19 17 15 14 15 15 14 13 13 14 14 15 15 17 16 15 16 16 16 17 16 17 20 21 23
41 40 38 37 36 35 31 30 26 24 23 21 19 18 18 19 20 18 18 18 20 19 17 15 15 14 14 13 12 10 10 12 13 14 15 16 16 15 14 17 17 17 15 16 19 22 23
42 41 39 37 35 31 30 28 27 25 23 20 19 20 20 20 18 17 17 19 20 18 18 16 15 14 13 12 10 7 9 11 13 13 15 16 15 17 17 16 16 19 18 20 19 18 21
43 40 38 37 33 31 28 27 26 24 22 21 21 20 20 20 18 18 18 19 18 17 17 17 13 11 12 11 9 7 9 9 11 12 14 15 16 19 20 19 19 20 21 23 20 22 23
44 41 37 32 30 28 25 25 24 24 22 21 20 20 21 21 19 19 18 18 18 15 16 14 12 12 12 11 10 9 9 10 12 13 14 16 18 18 19 19 20 21 22 21 22 23 26
45 42 37 32 28 26 23 23 23 22 21 20 20 19 20 18 17 17 15 19 16 14 15 15 14 14 13 14 13 13 12 13 15 17 17 18 18 19 21 23 24 23 21 23 25 25 28
47 43 39 32 29 25 23 21 21 20 20 19 18 18 18 17 16 15 15 16 15 15 17 16 15 15 13 13 15 16 15 18 20 21 23 22 23 25 26 26 26 25 24 26 26 29 30
48 44 39 33 31 27 24 21 19 18 18 18 17 16 17 17 16 15 15 14 15 20 27 19 18 17 16 14 15 18 19 20 23 25 24 25 28 30 30 30 30 30 29 28 29 31 33
49 44 38 35 33 28 26 23 20 17 16 16 15 14 15 18 17 18 16 15 18 25 27 22 21 20 20 21 22 22 23 23 26 29 29 30 30 30 32 31 31 31 30 32 34 36 38
49 45 39 35 33 31 28 25 22 19 15 15 14 14 13 14 14 17 16 18 25 31 25 22 22 22 23 26 27 28 28 30 31 27 35 32 33 34 34 32 34 33 31 35 41 43 40
49 44 42 36 33 32 30 27 25 21 17 15 14 14 14 15 16 15 15 27 26 27 25 22 23 25 27 29 32 32 33 35 35 35 41 43 39 39 39 38 39 40 39 44 42 46 45
49 44 41 38 34 32 31 30 27 26 22 19 17 16 14 14 14 16 26 32 28 26 23 24 27 30 33 33 33 34 38 40 41 41 42 47 43 42 42 42 42 42 47 45 51 60 57
48 44 40 38 35 33 32 31 29 28 28 23 21 18 17 15 17 23 33 29 26 29 30 30 32 33 36 39 39 43 45 45 44 42 41 43 46 41 41 42 42 42 44 46 51 58 57
49 45 40 38 37 35 33 33 31 29 31 29 24 22 23 21 24 29 33 31 31 34 35 36 38 41 43 45 46 47 47 46 45 42 38 36 38 37 38 43 46 48 50 53 52 58 65
51 48 43 39 39 38 36 35 34 31 32 33 28 29 28 28 29 32 32 31 34 37 39 40 41 41 43 45 48 47 49 48 47 44 39 35 38 36 36 42 47 48 50 50 53 52 59
54 50 44 38 38 38 37 38 38 36 38 37 31 32 32 32 36 38 35 35 38 39 39 39 41 43 44 45 47 47 46 44 40 38 39 39 43 42 37 46 47 49 49 51 55 61 65
55 51 46 40 37 37 37 39 39 43 41 38 34 40 35 34 36 39 40 41 41 40 39 39 42 42 41 44 44 45 43 40 39 40 40 39 43 40 39 36 41 47 50 54 61 70 67
53 48 43 41 38 35 36 36 40 44 44 40 37 41 39 43 43 44 42 39 41 40 38 39 40 38 38 42 40 39 36 33 34 34 39 41 45 44 45 46 47 48 51 55 62 64 74
52 49 44 38 37 34 34 34 35 37 41 40 41 43 41 44 43 43 41 40 40 39 37 37 37 36 34 34 32 34 33 32 30 35 41 45 48 50 54 54 54 54 52 60 65 66 67
52 49 46 42 37 34 33 33 34 35 35 38 38 39 38 44 41 42 40 39 38 36 36 33 32 32 33 34 34 33 33 34 36 40 47 53 58 63 58 61 58 53 53 62 63 62 63
48 49 45 41 39 33 33 33 34 34 36 34 34 36 39 45 43 41 38 36 36 34 32 32 31 32 33 35 35 35 34 36 41 50 56 62 65 71 73 70 71 49 59 60 62 59 60
46 47 45 41 38 34 33 34 35 35 36 35 35 35 35 44 41 37 35 34 34 34 33 32 33 34 36 36 38 38 40 37 45 50 56 60 70 76 80 80 70 57 57 59 63 59 61
49 46 45 42 39 35 33 35 36 37 37 38 36 35 33 31 36 33 31 31 34 35 34 36 37 36 37 40 43 47 49 50 49 52 62 67 72 78 86 90 83 63 63 64 68 70 73
54 50 48 46 42 38 37 37 38 38 39 40 39 37 35 32 33 33 32 34 34 35 38 38 39 40 42 50 56 57 56 57 60 61 64 72 79 80 85 88 74 65 66 70 83 85 84
62 57 53 52 49 44 41 39 39 40 40 41 41 41 39 36 37 35 34 34 35 35 38 38 41 45 51 55 58 61 65 63 64 63 65 66 77 80 86 86 82 68 74 81 82 87 89
68 65 61 59 58 55 51 47 43 41 41 41 43 44 44 44 42 41 38 37 35 35 34 39 41 44 46 51 59 64 69 71 70 74 67 73 74 82 84 78 75 77 79 83 88 93 90

GFSGBSN_prec_cthk_006.txt.gz
RH
30 28 31 30 31 32 34 35 35 29 27 33 34 33 32 31 28 20 15 15 17 21 21 21 17 15 17 18 18 16 16 16 16 15 13 15 17 15 14 11 10 11 11 11 11 13 12
30 30 32 32 33 34 35 35 35 36 36 35 33 31 26 14 13 15 17 18 21 22 22 18 15 14 16 18 16 15 15 16 16 16 14 12 14 13 11 11 12 12 14 15 17 18 16
30 33 35 34 33 35 35 34 31 35 31 27 23 17 14 16 17 18 19 22 22 22 21 18 16 15 17 17 18 15 15 15 16 16 15 13 11 12 11 12 14 15 17 17 18 20 20
33 36 36 36 35 37 36 31 28 24 20 19 16 16 17 18 18 20 23 24 24 22 20 18 17 16 18 16 15 14 14 15 16 17 18 18 18 17 16 15 17 16 16 18 18 20 21
37 40 39 36 37 36 35 29 25 22 21 19 19 19 19 20 21 23 23 24 22 20 19 18 17 16 16 14 14 12 12 14 15 17 19 18 16 16 16 17 16 14 14 13 18 19 21
41 44 39 38 37 36 32 29 26 24 22 21 20 20 21 22 22 21 22 22 21 20 18 17 15 14 13 12 9 9 11 13 15 16 17 17 17 16 15 14 16 16 16 17 16 17 17
44 43 39 38 37 34 31 29 26 23 21 21 21 21 22 21 20 20 21 20 20 20 18 19 16 13 12 11 9 10 10 12 13 14 17 16 16 18 17 16 16 17 18 19 18 20 22
46 44 40 37 35 30 28 27 25 22 21 21 22 23 22 19 19 20 20 21 19 18 16 14 14 14 13 11 11 10 10 12 12 13 13 14 17 16 18 18 18 18 19 19 21 22 25
47 45 40 35 31 28 26 25 23 21 21 22 22 22 21 21 20 20 20 19 16 16 17 16 15 15 15 15 13 12 11 13 15 15 16 17 18 19 20 21 22 20 21 24 24 24 25
47 46 42 33 30 28 23 23 22 20 20 21 21 21 20 19 20 18 19 17 15 16 18 17 17 15 14 15 16 15 14 16 18 20 21 21 23 25 24 25 25 23 24 26 24 25 27
48 46 43 36 30 27 23 21 20 20 19 19 19 19 18 17 18 18 18 18 15 21 24 18 17 18 15 16 17 19 18 18 20 22 24 24 26 27 28 29 29 31 29 28 26 26 28
49 47 42 36 31 27 24 20 19 18 18 18 17 18 17 17 16 17 17 17 17 25 25 21 20 21 20 19 20 21 22 22 24 25 25 26 27 28 29 28 29 30 29 30 32 34 39
50 48 43 37 32 29 25 22 19 17 16 16 16 16 16 17 16 16 16 16 22 25 22 21 21 21 22 23 23 25 26 27 26 26 28 28 30 32 31 30 32 31 30 36 44 44 43
51 49 44 37 34 30 28 25 22 18 16 15 15 14 14 15 14 18 16 25 24 24 23 21 21 22 24 26 27 29 27 28 29 28 31 33 37 36 37 37 37 36 36 41 44 43 40
51 48 45 39 35 32 29 27 23 20 16 15 14 13 13 14 15 16 22 30 25 22 20 20 22 24 28 30 30 31 32 32 37 36 36 37 38 38 38 37 37 38 40 39 44 53 48
50 47 43 41 37 33 32 29 26 23 18 16 15 14 14 15 15 18 30 24 22 21 22 25 28 30 32 33 34 36 41 41 39 35 32 34 39 35 34 35 36 36 38 43 40 55 41
51 48 43 41 39 34 33 31 28 27 23 20 18 19 15 16 19 30 30 26 26 28 29 31 33 34 37 39 40 41 41 41 40 38 33 30 31 30 32 37 38 41 43 41 40 45 47
50 50 45 41 40 36 35 33 29 30 28 25 23 26 20 21 27 30 29 27 31 33 35 38 38 37 40 42 42 41 43 41 39 33 32 34 36 33 34 39 42 43 45 44 46 50 55
51 52 48 43 40 38 37 36 32 31 31 30 28 29 26 27 33 34 30 32 34 36 39 38 38 37 39 41 42 42 41 39 36 34 36 34 36 31 33 40 42 46 46 46 49 53 58
53 54 50 45 41 39 39 39 37 34 36 31 31 37 33 32 30 30 34 36 38 40 38 36 37 38 38 39 40 41 39 35 33 33 32 33 35 34 31 32 37 41 43 49 52 62 60
55 57 54 46 40 40 39 41 41 39 37 34 32 35 34 37 35 35 37 40 41 40 38 36 37 36 36 40 36 34 32 29 28 29 32 36 37 40 39 37 39 47 49 50 51 59 69
57 55 53 48 41 37 38 37 43 43 40 37 36 37 36 38 38 40 42 43 40 38 37 35 36 35 30 29 25 28 27 27 27 33 36 39 45 46 45 44 43 47 48 54 57 62 65
56 54 51 47 43 38 37 38 36 38 40 37 39 39 39 43 42 44 44 41 38 36 36 35 34 31 30 29 29 30 32 31 32 36 43 48 52 55 58 52 52 59 51 53 57 63 65
55 54 51 47 41 37 36 35 35 36 35 36 38 40 41 45 44 44 42 39 38 36 35 34 31 30 30 31 32 32 32 34 38 43 46 58 59 66 70 67 66 52 51 53 56 59 61
53 55 54 50 47 40 36 35 35 35 36 35 35 38 41 48 42 41 41 39 37 36 35 32 33 32 34 34 35 42 35 39 42 43 48 54 63 71 76 69 53 51 52 57 59 57 61
48 49 52 50 47 43 38 36 36 36 37 36 36 36 38 41 44 39 37 36 36 37 37 37 35 35 35 39 39 46 41 39 39 45 53 56 62 70 78 84 77 59 56 58 60 67 73
47 47 47 48 46 42 40 36 36 37 39 38 38 38 36 34 36 35 34 33 33 34 36 37 39 39 40 44 49 51 45 42 44 53 56 61 67 72 77 84 72 65 65 67 81 83 81
52 48 46 46 47 43 41 38 37 39 40 42 40 40 38 36 37 35 34 33 34 34 36 38 41 41 44 49 52 51 53 48 49 47 52 57 70 78 80 84 88 72 75 86 79 78 85
63 55 50 48 48 46 43 41 40 41 42 42 44 43 42 41 40 38 36 35 33 34 34 37 37 34 40 46 50 52 54 56 58 58 54 61 63 68 75 70 76 79 84 80 83 85 89

GFSGBSN_prec_cthk_009.txt.gz
RH
31 30 29 26 29 30 31 33 36 36 31 28 28 27 30 31 31 30 31 30 26 23 21 22 18 20 19 27 27 19 18 15 13 14 19 23 26 23 22 17 15 15 12 11 7 6 9
32 31 27 28 30 32 33 36 38 34 29 31 34 33 39 34 32 31 24 17 18 22 24 21 17 19 20 32 18 17 18 18 19 20 17 20 22 18 15 15 18 13 13 13 12 13 12
33 28 29 30 32 33 35 36 36 36 38 36 33 33 31 20 13 14 16 20 24 25 22 18 15 15 21 24 16 16 16 17 15 18 18 14 14 13 12 11 11 12 15 16 16 17 19
30 30 32 32 34 34 36 35 30 35 27 28 27 17 13 15 17 18 22 25 24 22 19 17 15 15 26 16 17 14 13 14 14 14 13 11 10 14 19 15 15 17 21 25 21 18 20
30 33 34 36 36 37 37 33 28 23 19 17 16 16 17 17 19 23 25 25 23 21 19 18 17 21 21 16 18 16 15 17 17 18 18 17 19 19 16 20 21 18 28 20 23 18 21
32 36 38 37 37 38 37 32 26 23 20 20 19 19 18 20 23 23 24 23 22 20 20 18 18 22 16 17 14 12 13 15 19 18 19 19 20 23 20 24 28 27 21 18 21 22 17
35 40 41 39 38 37 35 30 27 24 22 21 21 21 22 23 22 23 23 22 21 21 21 25 19 20 13 11 10 13 12 16 16 19 26 18 28 32 23 20 21 16 18 21 22 20 18
38 43 41 39 38 37 33 30 27 24 23 23 24 23 22 22 20 22 22 36 30 22 20 18 15 14 12 13 14 13 13 17 17 23 16 17 25 17 17 19 18 19 20 21 20 19 19
41 44 41 39 38 35 30 29 25 24 23 25 26 24 21 20 19 20 27 24 19 18 19 17 17 16 14 15 14 13 14 15 15 15 16 25 20 17 19 22 20 21 22 24 24 22 21
44 46 42 39 34 30 28 27 25 23 24 25 25 23 21 20 20 22 24 17 17 20 23 16 17 15 16 16 15 12 11 16 17 19 20 20 19 21 21 23 22 27 24 24 22 23 35
47 47 43 37 32 28 25 25 24 22 23 24 24 22 21 22 25 24 20 17 15 22 32 17 17 15 14 17 17 16 14 16 20 20 23 26 25 27 28 26 25 31 26 27 26 25 28
48 48 44 37 31 28 24 23 23 22 21 21 22 20 19 21 21 22 17 15 14 31 30 19 18 21 19 18 18 20 20 20 23 24 24 24 24 26 26 25 24 26 28 27 29 33 37
50 49 44 38 33 28 24 21 21 20 20 19 19 19 19 19 23 18 17 18 22 35 21 21 21 23 25 22 22 23 24 25 28 31 30 28 29 29 28 33 32 30 34 45 50 47 52
51 50 44 38 34 30 26 22 19 18 18 18 18 18 18 18 16 17 17 24 34 26 22 21 23 24 26 25 25 25 28 27 26 28 31 35 43 33 31 33 35 34 35 44 44 46 44
52 51 44 38 35 32 29 24 21 17 16 17 17 17 18 17 15 17 23 35 29 21 22 21 22 26 25 24 26 28 29 28 29 31 37 34 37 32 30 31 31 37 38 31 40 46 43
54 53 46 39 36 34 31 27 23 17 16 17 19 19 19 15 15 17 31 35 25 20 19 20 28 29 33 29 30 32 34 35 34 29 28 29 39 28 29 29 33 36 33 45 43 53 40
53 53 48 42 38 36 34 29 26 20 17 17 21 22 16 14 15 24 33 27 22 21 22 29 32 31 33 32 35 37 35 35 34 32 27 25 30 33 31 35 38 43 47 42 38 43 49
52 52 47 45 39 37 36 32 30 24 20 19 23 30 15 15 22 33 33 25 25 25 28 31 34 33 37 36 36 37 37 39 34 28 33 29 32 32 30 31 32 36 41 41 46 48 51
51 53 48 43 42 37 37 35 32 30 25 27 31 31 18 20 38 36 31 28 29 29 32 36 36 35 37 37 37 38 38 35 31 28 34 29 35 34 34 42 43 40 44 45 47 49 48
51 53 51 44 41 41 39 37 33 33 32 31 34 33 25 26 34 31 30 29 31 34 37 38 36 34 36 36 36 38 35 31 27 29 26 28 31 32 34 33 33 38 40 43 49 56 57
51 52 52 48 42 42 41 41 37 35 37 32 38 37 31 31 31 32 31 32 33 36 38 37 35 36 38 38 37 34 31 27 26 25 29 29 34 36 34 33 34 39 42 43 45 49 58
53 53 53 50 45 42 43 43 42 39 39 36 36 35 33 34 34 34 36 35 36 38 37 37 37 37 35 35 27 28 26 27 28 29 31 32 41 41 38 35 37 40 41 41 46 51 55
55 54 54 51 46 42 41 42 45 43 40 41 33 33 37 34 35 38 38 40 41 41 40 37 36 35 35 33 29 29 31 31 29 34 37 38 41 44 48 41 44 55 44 44 50 54 59
59 57 56 54 50 43 40 40 40 43 43 41 39 39 38 40 41 41 41 42 44 42 38 38 37 37 35 28 27 30 31 33 34 38 38 44 46 54 58 55 66 51 47 47 49 54 54
61 60 57 53 50 46 41 39 40 39 36 37 40 42 41 47 43 43 44 45 44 41 40 39 38 33 31 32 33 35 35 37 39 37 39 43 52 59 63 55 47 48 49 52 53 53 57
61 60 59 53 48 45 42 39 38 39 40 38 37 39 43 44 48 44 46 45 46 45 42 39 35 32 33 36 36 44 40 34 37 40 41 45 52 57 66 72 69 58 58 57 58 66 74
59 59 58 55 52 49 46 40 37 38 40 39 39 38 42 44 45 45 47 46 45 42 41 38 37 37 35 41 44 48 41 36 36 45 52 54 58 62 65 75 63 58 60 62 73 80 82
55 56 56 56 54 51 48 43 40 39 40 42 41 38 39 39 39 43 43 42 39 39 42 40 39 40 42 44 46 45 50 41 40 36 43 49 60 65 69 78 79 65 67 78 77 81 83
51 51 51 50 51 52 48 44 41 40 40 42 46 42 39 41 41 37 37 36 36 39 40 37 38 35 36 41 44 46 48 50 46 46 39 43 47 58 68 66 68 73 77 82 83 85 87

GFSGBSN_prec_cthk_012.txt.gz
RH
31 34 35 29 28 26 26 27 29 33 35 33 31 30 27 27 27 26 22 26 29 30 28 24 22 21 28 41 36 17 16 14 14 15 20 28 34 32 28 27 20 24 21 20 9 6 7
34 42 31 30 26 26 28 29 33 37 36 29 27 26 25 31 29 26 28 32 31 29 24 22 21 20 29 44 24 18 14 16 22 24 30 34 35 32 26 22 25 16 13 9 8 9 8
45 36 32 29 25 27 30 30 35 35 35 29 33 30 40 40 32 31 32 30 27 22 23 21 20 21 36 37 21 19 17 18 18 26 28 25 28 23 21 18 21 13 15 14 13 14 14
41 34 32 26 27 30 30 33 31 39 40 35 36 32 35 30 27 24 22 21 24 25 23 19 17 18 34 22 18 16 16 16 17 21 21 18 16 23 26 16 11 15 22 26 22 18 17
37 35 29 27 30 31 31 33 31 29 24 28 29 25 15 15 17 21 24 27 26 22 19 16 14 21 32 14 13 14 12 17 15 14 13 11 12 16 15 15 19 19 28 32 29 23 22
39 34 28 30 34 33 34 33 29 27 21 22 23 18 19 20 24 27 27 25 23 20 18 17 22 34 20 20 16 15 15 18 20 19 19 18 22 23 22 32 36 33 25 26 21 22 15
36 32 31 34 35 34 36 32 28 28 23 23 22 21 22 26 27 26 23 22 22 22 28 34 21 25 18 13 13 16 15 17 20 21 29 20 31 38 27 24 26 28 24 23 31 22 19
36 33 34 38 36 35 35 31 30 26 25 24 23 25 26 25 26 26 35 47 38 26 24 22 19 18 14 15 14 13 15 20 18 27 24 19 29 29 26 16 19 26 24 24 23 20 17
35 34 37 39 36 37 33 29 27 26 25 27 27 25 25 24 24 27 39 35 27 20 20 19 17 15 15 17 17 14 16 17 19 25 20 29 26 15 15 21 20 25 21 30 27 24 20
35 37 40 38 36 36 32 30 26 25 27 31 29 26 25 22 24 29 32 22 19 21 21 14 17 14 15 16 14 11 13 19 19 22 22 23 22 19 22 23 20 29 26 24 21 23 33
36 40 43 38 35 33 30 29 26 26 28 31 29 27 25 22 31 31 24 18 21 31 37 18 16 14 13 19 18 15 12 18 21 21 25 31 25 28 28 28 23 29 27 23 23 26 26
39 42 45 39 34 31 28 27 25 26 28 30 29 26 24 29 27 29 20 17 20 45 39 18 18 21 18 17 17 18 16 18 21 23 25 25 22 24 24 23 21 23 26 26 27 30 41
41 44 46 39 33 31 26 26 24 25 27 26 27 25 25 29 31 23 17 16 27 43 21 20 21 23 22 20 22 21 22 24 31 31 31 28 26 26 25 33 33 29 36 48 64 57 56
44 46 46 40 33 30 26 24 23 23 24 24 23 23 22 23 25 19 17 27 38 29 24 22 22 23 25 23 21 25 29 26 25 31 37 44 50 33 30 32 33 34 35 52 53 63 55
47 49 47 41 34 31 28 24 21 21 22 21 20 20 21 20 18 19 26 36 36 23 25 22 23 27 24 23 26 29 31 27 26 33 39 38 40 29 26 26 29 36 38 27 39 47 44
50 52 48 41 36 33 30 25 22 20 19 20 20 20 24 19 16 18 32 39 35 24 21 22 25 30 36 31 31 36 32 32 32 28 27 29 38 25 25 34 37 31 29 41 53 58 47
52 53 48 42 38 35 32 29 25 20 18 19 25 24 26 17 16 23 33 38 27 21 20 24 34 31 42 34 37 39 37 34 32 29 27 25 33 31 33 32 32 39 43 40 38 46 52
54 55 48 43 40 38 36 30 27 21 19 20 23 33 28 15 22 22 36 31 24 20 21 28 33 36 38 36 41 40 37 38 31 26 31 24 29 35 30 29 28 30 36 38 50 45 53
55 57 51 45 41 41 39 33 30 22 19 22 35 48 21 16 32 39 38 30 26 24 25 29 35 36 39 40 41 38 40 35 29 28 33 25 32 39 37 43 38 33 37 38 44 50 51
55 57 52 49 42 42 41 38 32 25 25 36 47 40 21 24 45 34 32 28 29 29 31 33 38 35 36 39 36 38 39 34 26 24 20 27 27 28 35 33 31 31 31 35 41 57 55
54 57 53 49 47 42 43 40 37 31 31 41 51 35 21 23 33 35 32 30 32 31 31 36 37 34 37 38 37 38 36 28 24 20 24 25 29 30 29 29 30 30 32 35 38 44 52
54 56 56 50 48 46 43 43 40 37 38 39 50 44 28 38 28 32 36 33 33 33 35 37 37 38 39 39 34 36 29 26 28 27 30 28 37 34 33 30 31 30 34 35 38 43 46
55 56 58 54 48 47 46 44 43 41 43 43 41 37 36 33 35 36 36 33 36 36 38 40 40 42 39 36 35 33 31 31 29 33 32 34 37 40 43 36 37 53 43 39 43 49 51
57 56 59 57 51 45 45 46 46 44 42 45 38 37 40 38 35 35 35 38 40 41 40 42 43 41 39 38 31 27 29 32 32 32 34 37 39 45 50 46 51 38 37 41 46 49 53
59 56 58 58 54 48 43 42 44 46 44 40 39 42 40 42 38 41 38 42 45 44 48 46 45 41 37 36 33 30 33 32 35 33 34 38 42 50 56 48 36 38 43 46 50 51 55
61 59 57 59 56 51 43 41 41 41 39 39 39 41 43 41 44 43 44 47 48 50 51 52 47 41 38 39 37 40 43 33 40 38 37 40 46 50 58 59 52 42 50 51 53 60 69
64 62 59 59 58 53 48 41 39 41 43 40 38 38 43 47 47 47 53 51 53 53 54 49 45 40 40 40 43 44 40 31 40 43 49 48 50 54 57 57 50 42 49 53 63 73 72
63 64 62 61 59 54 48 44 40 40 42 43 43 41 42 44 46 50 53 55 54 53 57 52 46 44 44 47 45 42 47 43 39 35 42 45 54 56 56 62 59 49 56 63 67 74 78
61 63 62 61 60 53 49 48 47 42 40 42 47 43 41 44 44 44 48 51 49 50 50 46 42 40 39 41 42 43 45 49 47 43 33 45 43 50 50 49 48 57 63 67 71 77 82

GFSGBSN_prec_cthk_015.txt.gz
RH
28 29 35 33 34 34 27 26 25 26 28 32 33 32 29 27 26 26 24 19 21 25 30 31 26 24 38 37 34 24 22 18 18 19 25 28 29 27 25 25 26 26 24 22 23 19 13
27 31 34 33 39 30 27 25 26 28 31 34 34 27 28 26 24 25 23 21 25 32 32 28 25 36 39 42 33 24 18 22 25 28 35 33 35 35 30 27 23 22 14 13 13 7 5
25 30 34 41 33 29 26 26 28 30 33 33 32 26 22 22 28 27 23 27 34 34 29 25 22 35 37 37 29 19 19 24 25 28 31 29 35 33 30 26 19 15 10 11 10 10 11
26 32 38 39 31 28 26 28 29 32 36 32 38 33 32 33 34 30 33 37 34 29 24 21 22 30 36 29 20 16 16 17 22 23 22 26 30 28 23 20 15 13 19 23 21 26 20
30 36 41 35 31 27 29 29 30 33 31 35 33 32 37 34 33 43 35 29 26 24 22 20 22 29 31 19 14 14 12 14 18 19 19 19 22 17 19 21 29 30 33 32 34 26 21
33 39 36 34 28 29 31 31 32 33 26 25 27 26 22 19 22 22 24 27 25 23 20 18 25 33 23 20 14 13 12 13 13 14 12 13 25 29 34 34 33 35 34 36 34 24 20
38 39 38 31 29 32 33 33 32 28 25 19 20 20 20 22 25 27 27 26 24 23 24 25 31 24 17 14 15 16 14 17 17 19 24 33 34 34 31 31 35 35 30 33 31 25 24
38 42 36 29 32 35 34 34 30 27 26 22 22 22 26 30 29 29 33 35 35 33 28 26 27 23 20 19 17 17 18 20 22 26 31 32 32 37 37 29 25 33 31 31 24 22 21
40 40 33 30 36 36 35 33 28 30 27 24 24 28 30 28 30 40 45 42 37 30 27 24 22 16 19 18 16 14 17 19 26 26 27 28 29 21 22 26 21 27 30 32 25 22 19
42 41 32 32 38 36 35 32 27 28 27 28 29 29 28 28 37 41 41 33 28 25 22 16 16 13 15 15 13 12 15 18 22 27 24 27 29 26 21 22 22 26 26 25 22 21 26
45 38 32 35 38 36 35 30 27 27 30 32 29 30 27 29 37 41 35 23 26 28 41 20 17 15 16 20 17 11 14 21 25 24 24 27 25 25 26 26 23 26 25 22 22 25 28
48 36 33 38 38 35 33 29 26 27 31 32 29 30 27 32 35 35 28 23 31 54 39 19 16 16 16 17 20 17 16 20 21 23 26 28 25 23 23 22 23 24 27 29 33 32 43
51 37 35 41 38 34 30 28 26 28 30 32 30 28 28 32 33 26 23 23 50 55 21 20 22 23 20 23 20 20 20 26 30 32 33 29 29 24 28 31 32 29 38 52 58 64 62
50 37 37 43 38 33 28 27 24 27 29 30 30 28 26 29 29 22 17 30 45 28 27 22 22 26 24 22 23 28 27 27 30 39 37 41 50 30 27 32 32 32 34 52 57 70 62
48 38 41 44 38 32 29 25 24 25 27 28 27 26 24 23 26 19 21 47 42 30 26 23 24 31 27 25 27 31 32 30 26 32 40 44 42 29 20 22 31 36 31 29 44 45 51
47 40 44 46 38 33 30 24 23 23 25 25 24 23 22 22 22 19 33 46 38 27 26 23 27 32 37 27 29 34 32 29 28 32 34 37 34 26 31 35 32 30 28 41 46 50 45
49 43 47 47 38 35 31 26 23 22 23 24 23 21 21 21 19 22 38 43 31 26 24 25 33 38 44 35 38 40 36 34 32 27 25 33 33 32 33 29 29 34 37 35 35 47 56
48 46 50 46 38 37 33 28 25 22 22 22 25 28 28 20 20 25 30 33 29 23 22 25 34 36 40 37 42 42 43 38 29 30 27 28 33 39 33 30 27 27 31 35 50 47 61
50 50 51 46 40 40 36 31 27 22 20 22 27 37 35 18 26 28 35 34 28 21 22 25 33 35 36 37 43 44 42 36 31 28 31 27 28 45 40 38 31 28 32 33 44 48 49
52 56 54 47 42 42 39 34 29 21 20 29 43 43 35 20 33 31 39 35 31 26 27 27 32 33 39 41 39 41 41 35 26 19 22 28 25 30 41 30 28 27 28 29 41 56 52
56 59 56 48 44 44 43 36 29 22 24 47 52 43 30 22 41 34 40 32 30 29 28 30 34 36 36 39 39 42 40 31 24 19 22 25 34 30 28 25 27 28 29 30 33 38 49
59 61 57 49 45 47 45 40 33 25 43 52 62 55 21 22 35 35 39 35 34 31 29 30 36 41 40 41 39 40 36 31 30 25 25 25 38 30 30 31 30 30 32 32 34 38 40
62 63 59 54 46 47 48 44 39 36 44 50 62 56 32 40 26 39 40 34 34 35 32 33 40 46 46 41 36 36 34 29 30 28 30 33 36 38 43 35 39 45 34 32 35 40 43
63 62 60 55 51 46 49 47 45 42 41 44 43 43 38 38 40 35 36 34 39 36 37 39 41 45 44 41 37 37 34 31 30 32 33 33 38 42 45 39 40 37 31 31 37 41 44
63 63 63 56 52 49 47 49 48 47 46 46 44 43 38 43 38 37 37 39 41 40 41 41 41 45 47 42 39 35 39 33 34 34 36 36 38 44 50 48 34 35 32 35 39 45 50
63 61 63 62 54 49 48 48 48 48 45 43 42 42 39 37 38 40 38 41 46 45 47 47 48 48 47 48 43 44 46 36 39 37 38 41 42 43 51 51 50 40 38 38 41 52 54
64 60 61 63 60 53 47 45 43 44 43 41 39 37 39 39 40 40 44 44 44 47 53 53 53 51 48 49 49 47 45 38 45 46 47 49 49 49 51 52 43 33 37 37 49 50 58
64 62 59 61 62 58 52 46 43 42 43 41 38 37 37 39 42 45 48 46 46 48 54 52 54 52 55 54 50 46 47 43 42 40 43 43 50 51 51 55 54 34 38 43 43 51 61
63 64 62 60 62 61 57 53 46 42 41 43 42 40 39 38 38 45 52 54 53 54 50 52 49 47 47 48 46 46 46 47 46 44 37 43 39 46 43 42 35 39 43 44 46 55 66

GFSGBSN_prec_cthk_021.txt.gz
RH
20 19 20 21 20 22 22 21 24 27 33 28 23 24 26 29 29 27 25 22 20 20 18 22 26 25 28 32 29 26 23 21 20 22 23 25 33 38 39 39 35 29 26 25 24 25 26
23 21 20 21 20 22 22 21 25 30 31 24 23 25 28 31 31 28 25 23 19 19 21 25 29 30 33 33 28 26 25 24 29 31 29 35 40 40 40 36 33 28 27 25 23 23 22
25 23 21 21 20 21 21 22 27 32 25 22 25 28 32 32 30 27 25 25 22 19 23 31 32 35 34 32 29 26 25 28 32 31 34 37 37 37 32 32 29 27 26 20 14 17 20
28 23 21 21 20 20 22 23 30 29 23 23 27 32 33 30 26 23 25 25 21 24 31 33 38 40 35 29 27 25 27 33 33 37 39 39 38 35 30 29 27 26 27 18 20 19 13
30 23 22 21 20 21 23 26 31 26 23 25 30 33 36 26 22 25 26 24 27 32 36 37 42 39 33 31 25 24 28 36 34 36 39 38 39 34 32 30 27 26 20 25 29 28 22
31 25 23 21 22 23 25 29 32 25 24 28 28 35 36 33 31 29 32 32 37 37 36 39 39 32 33 33 23 27 30 31 34 36 36 37 35 35 33 26 28 24 26 25 28 27 25
33 26 25 23 24 26 28 30 32 24 26 28 26 29 30 36 38 38 38 40 39 34 31 29 31 34 27 24 17 19 23 25 32 35 30 31 31 30 30 23 26 24 25 29 29 28 27
33 28 28 26 25 28 28 32 29 25 28 28 22 17 24 29 34 40 39 45 36 32 25 27 32 26 23 20 16 14 17 23 28 31 21 27 28 26 26 31 32 33 32 29 28 32 31
33 30 30 27 27 28 29 33 26 27 30 26 20 18 21 25 27 36 38 34 35 32 36 33 28 25 24 20 17 15 15 18 22 28 27 29 26 29 38 40 39 38 33 35 36 37 37
32 32 28 28 30 29 32 29 27 30 31 25 22 22 25 25 29 34 35 38 37 33 35 29 26 25 26 22 19 16 19 23 27 29 26 32 29 31 34 32 34 37 38 36 38 38 44
33 34 29 30 31 31 33 29 30 32 31 27 24 27 27 29 40 36 39 36 34 34 38 24 23 23 24 23 20 25 27 27 26 28 28 33 34 33 30 27 26 30 30 30 33 39 40
36 33 33 33 33 34 33 31 31 33 30 27 27 30 30 37 36 38 37 33 33 46 34 24 23 18 22 20 18 23 28 29 29 31 31 31 30 29 28 27 26 27 31 35 38 36 43
45 34 36 34 35 36 34 31 33 34 29 26 29 32 32 36 37 38 33 31 42 56 25 22 21 19 25 21 18 20 29 30 31 34 35 31 29 28 27 27 27 27 33 45 49 50 50
49 38 39 37 37 37 35 32 34 34 27 27 32 31 32 36 40 36 33 37 49 36 26 20 20 21 22 22 21 22 28 31 30 32 36 37 34 28 29 31 30 30 35 50 49 57 51
44 41 42 41 40 40 36 35 35 33 28 30 33 31 31 35 35 35 36 49 49 35 25 24 26 28 26 26 24 25 28 28 29 32 36 38 35 24 29 31 31 30 32 34 45 52 55
40 43 45 44 43 43 36 37 35 31 30 31 31 30 31 31 32 36 45 57 40 31 28 28 29 29 29 28 29 30 29 29 32 34 35 42 38 28 29 30 28 26 28 35 40 41 43
39 46 46 45 47 41 37 37 35 29 31 33 32 29 29 27 29 34 49 51 39 32 30 29 29 32 34 30 31 33 35 34 30 36 37 42 35 31 33 31 29 29 28 32 36 42 47
47 49 47 50 48 40 38 36 34 28 30 33 32 29 27 26 27 34 42 44 35 33 30 29 31 32 39 38 34 36 37 34 30 34 39 40 40 42 32 28 25 25 26 28 37 35 49
54 51 51 54 48 41 40 35 32 28 29 31 30 34 28 25 27 31 33 38 35 31 29 30 31 35 41 45 46 44 42 39 34 32 35 37 38 44 38 33 29 28 28 32 32 37 38
60 58 60 58 48 44 41 34 30 27 27 30 31 38 32 28 23 23 24 31 31 30 28 28 30 36 42 46 47 50 46 42 31 30 31 34 35 32 36 30 29 25 26 30 32 44 39
63 62 65 60 47 46 41 34 28 27 27 29 35 34 27 29 26 26 28 30 30 29 26 26 28 33 39 44 45 46 45 39 30 30 29 30 33 31 30 29 25 25 26 28 31 31 35
63 65 69 56 49 48 43 35 28 25 26 29 38 36 27 23 20 26 31 35 32 28 26 25 25 33 38 40 38 45 41 35 29 30 28 33 36 29 31 31 31 27 26 28 28 27 32
61 66 64 55 52 50 46 36 28 25 26 31 42 36 28 29 22 29 31 33 29 29 28 29 30 32 35 41 38 39 38 35 32 29 29 29 34 32 29 36 33 29 27 29 27 27 29
63 66 62 56 53 52 47 37 28 24 24 40 42 38 30 32 26 27 31 31 32 32 32 30 29 32 36 43 43 41 40 40 39 36 31 34 38 36 36 35 32 23 26 27 27 27 31
61 63 66 59 55 55 47 36 27 24 38 47 46 42 32 35 33 33 32 33 38 39 38 39 35 35 37 40 47 46 49 42 44 46 39 34 38 44 41 42 30 25 28 29 30 28 32
66 65 61 60 58 56 46 35 28 35 42 68 54 42 36 36 43 40 42 41 41 42 42 41 40 38 40 44 46 46 45 38 45 43 44 42 38 38 52 38 33 22 27 28 30 37 31
64 68 62 62 62 60 48 35 37 37 47 63 55 48 37 38 41 42 40 39 37 40 43 43 43 43 43 48 54 53 53 44 49 48 51 52 51 47 55 47 37 25 30 31 40 30 32
73 70 64 63 66 58 48 38 38 44 63 67 60 46 40 37 40 40 38 38 39 39 43 42 45 46 49 52 53 54 55 51 50 46 50 50 53 53 54 55 40 26 34 35 31 29 34
74 69 67 66 65 62 52 48 42 43 43 41 40 40 38 38 41 41 41 40 40 42 42 44 43 44 46 49 51 53 54 55 51 51 45 48 40 44 42 38 28 29 29 31 34 36 40

GFSGBSN_prec_cthk_024.txt.gz
RH
26 24 20 18 17 17 19 19 20 20 21 22 28 30 22 22 25 28 30 27 23 21 20 18 20 24 25 28 29 29 24 22 21 20 23 25 24 38 39 37 36 36 36 30 35 43 41
32 28 22 20 19 19 19 19 21 20 21 24 29 24 19 23 27 31 30 29 24 19 19 19 24 29 29 35 31 29 26 26 25 24 30 30 37 39 41 37 33 32 30 30 30 35 30
36 31 29 23 22 21 20 20 20 20 23 27 26 20 22 28 32 32 31 28 25 20 16 21 29 33 33 35 30 30 28 27 29 31 33 40 40 38 37 39 36 29 30 28 20 19 24
42 35 31 29 24 22 20 21 20 22 24 28 23 20 27 32 33 31 29 27 26 22 20 24 34 38 38 33 29 30 28 30 34 34 38 41 42 40 37 36 34 30 29 18 18 17 18
47 38 32 31 26 23 22 22 22 24 26 28 22 23 30 34 29 26 24 25 24 24 26 36 43 42 38 34 30 31 31 34 40 41 40 41 40 37 33 33 32 30 29 29 24 19 19
47 40 35 29 26 23 22 22 23 26 27 27 21 26 32 34 29 28 26 27 27 30 36 41 47 43 38 36 28 30 31 39 42 43 41 41 39 37 35 32 29 26 27 28 24 24 24
48 43 34 30 26 24 24 23 25 27 28 26 22 26 30 32 31 31 33 37 36 41 38 40 41 34 34 38 24 29 32 39 41 42 41 40 40 39 36 32 28 25 27 28 27 24 28
49 47 34 30 26 26 25 25 27 28 27 25 23 25 25 29 34 35 37 45 47 39 38 35 35 35 32 31 28 29 32 35 38 41 39 41 40 37 36 33 30 30 30 33 30 30 30
49 49 35 29 26 28 27 26 27 28 27 24 23 23 20 26 34 39 48 47 40 35 37 32 33 30 27 24 18 20 26 34 37 38 32 34 36 33 33 34 34 33 31 33 34 38 38
56 53 38 29 26 30 29 27 28 28 27 24 24 22 23 26 33 41 49 38 35 34 37 31 32 26 25 23 20 18 22 30 34 39 36 31 36 34 35 35 35 40 39 36 35 39 44
62 57 41 30 27 32 30 29 28 27 27 25 26 24 25 28 34 35 36 38 34 34 42 29 25 24 25 23 19 19 20 24 33 35 36 29 29 31 35 34 31 32 33 32 34 37 38
68 68 43 30 31 34 31 30 29 27 28 27 27 27 27 34 38 41 37 33 32 45 37 26 26 27 30 27 21 23 26 26 27 29 29 29 34 32 30 31 27 27 30 33 37 38 44
85 74 44 32 36 33 33 32 30 28 29 30 30 28 29 41 41 37 32 33 41 54 28 27 25 23 27 27 25 29 31 32 33 36 35 32 34 32 30 29 27 28 33 46 49 52 50
96 84 45 37 40 36 34 35 31 31 31 31 33 31 32 45 38 35 33 36 43 44 27 23 21 22 25 22 24 30 32 33 32 32 39 38 34 28 28 28 30 30 34 47 46 57 50
92 90 50 43 43 40 38 37 33 34 34 31 34 33 40 41 36 36 36 42 46 38 26 21 21 24 25 24 21 25 29 31 33 32 37 39 34 28 30 30 33 32 35 38 50 52 56
97 92 53 47 46 44 41 39 36 37 37 30 35 38 36 38 35 37 38 44 45 34 26 24 26 26 27 27 25 26 28 31 31 31 33 35 35 28 29 33 32 34 33 35 41 38 37
90 90 58 51 49 48 44 42 39 41 37 34 41 38 34 35 37 35 42 45 45 33 29 29 31 31 30 29 31 30 31 30 31 33 36 35 39 35 31 32 33 32 30 32 35 41 44
93 92 61 54 50 50 48 42 43 45 39 37 40 36 34 35 35 41 45 48 39 33 33 31 31 34 38 39 34 34 34 33 33 33 37 41 46 47 33 33 29 27 27 28 35 31 46
98 73 64 55 52 50 48 41 46 46 37 38 36 39 36 34 35 42 45 46 40 35 34 33 34 35 43 48 47 39 38 38 34 29 36 41 44 50 38 32 29 28 31 31 31 35 37
92 69 55 52 53 49 47 43 45 44 40 43 38 43 39 35 27 34 42 42 39 36 33 32 35 35 42 50 50 53 48 42 37 33 34 37 41 38 37 29 30 29 30 31 30 40 36
72 62 51 53 54 49 43 45 44 42 39 43 39 40 33 36 31 29 35 36 38 34 31 30 31 34 40 49 50 52 50 42 38 37 33 33 37 37 35 34 28 25 25 28 28 28 32
69 60 54 56 53 47 43 46 42 41 38 43 40 38 32 29 27 27 31 33 31 31 29 27 27 33 35 43 43 46 43 40 34 35 35 35 36 33 36 36 33 28 25 26 27 27 30
70 60 57 57 53 47 45 45 39 39 36 40 39 36 30 31 29 28 28 31 31 29 30 28 26 27 32 40 40 39 38 37 33 32 35 33 35 33 32 36 32 29 23 26 26 25 25
66 63 61 63 58 50 49 45 37 36 35 35 37 39 34 32 28 28 25 30 31 29 30 30 28 29 32 38 43 41 40 41 40 39 34 33 33 35 37 34 32 20 22 24 26 26 26
69 67 65 69 61 52 52 43 36 33 35 34 41 41 36 37 26 26 27 33 33 35 35 34 31 30 33 37 45 48 49 43 43 45 41 35 35 43 40 40 27 20 23 27 30 28 28
67 66 68 69 59 55 53 42 34 31 33 37 48 43 38 34 29 26 30 33 37 38 37 39 38 34 35 39 40 45 48 41 42 43 45 43 40 39 49 37 33 23 24 27 28 36 26
67 66 67 71 65 58 51 43 34 31 33 50 55 48 42 35 34 34 32 33 30 36 42 40 41 39 37 42 48 46 43 40 46 46 53 55 55 48 57 47 37 26 29 30 37 31 27
62 66 72 74 66 60 51 42 32 31 42 50 59 50 45 42 44 42 41 41 37 37 40 40 43 45 45 46 49 50 51 48 45 41 49 49 55 56 57 56 44 30 35 37 32 28 28
69 73 72 72 67 64 53 39 34 38 53 72 62 54 45 42 47 46 45 43 36 38 37 42 41 41 41 46 48 49 51 50 46 46 43 46 42 45 43 40 31 32 32 32 32 34 36

GFSGBSN_prec_cthk_027.txt.gz
RH
49 37 31 28 25 19 18 18 18 18 19 20 19 20 23 25 21 21 23 25 27 25 21 19 19 19 24 25 27 28 27 25 23 20 19 17 19 22 36 41 39 39 38 37 48 46 46
57 48 38 31 30 23 20 19 20 20 21 20 20 23 24 21 21 24 26 29 29 27 22 18 19 20 31 31 31 29 27 24 24 24 23 23 24 37 40 38 38 35 37 34 38 47 48
58 57 45 36 32 28 22 22 21 21 21 21 22 26 24 20 25 27 30 31 29 27 20 16 19 28 34 32 32 29 27 27 26 28 35 34 40 41 39 40 38 33 34 32 30 32 43
46 54 53 42 33 33 25 24 24 23 22 21 23 27 22 22 27 30 29 30 29 27 22 16 22 33 37 33 31 31 29 32 33 39 42 39 40 42 42 38 36 34 32 27 25 27 29
44 46 50 46 35 34 29 27 26 23 23 22 24 26 22 25 29 29 25 25 25 26 24 24 29 40 38 34 32 32 31 34 39 41 44 44 42 43 39 40 39 33 29 24 23 23 23
33 43 46 46 37 34 30 28 25 23 24 23 26 25 24 27 30 29 25 24 25 26 27 30 45 44 39 36 30 33 32 36 42 45 45 45 43 37 35 34 33 31 29 32 26 22 24
31 38 42 47 42 32 29 28 26 25 24 25 27 24 25 27 29 28 26 30 32 32 31 41 44 43 39 38 28 33 32 39 49 44 45 45 39 40 35 33 29 28 26 32 31 29 32
28 36 40 43 42 34 28 27 26 27 25 27 26 24 25 26 28 28 32 40 45 40 39 42 45 41 38 38 28 31 29 42 45 45 41 42 41 38 38 36 33 33 31 33 34 34 33
32 39 33 41 43 35 28 25 27 27 28 27 26 23 24 23 26 31 41 41 44 44 41 39 38 35 35 35 35 29 30 37 40 47 42 41 40 39 38 38 37 37 33 36 37 37 35
30 32 36 41 43 39 26 25 29 28 29 27 26 23 23 25 31 38 42 45 51 41 37 37 40 35 32 29 26 27 31 36 39 43 41 37 42 40 40 39 39 42 37 30 34 35 37
24 33 41 42 43 43 26 24 30 30 29 27 26 24 26 29 34 36 44 48 38 39 48 34 33 31 30 26 22 21 24 30 39 40 42 38 35 38 40 39 38 38 35 40 39 34 35
23 30 49 42 48 46 28 24 32 33 30 28 26 27 30 31 35 36 38 40 38 44 46 30 30 27 29 26 22 23 23 30 38 44 45 42 37 32 34 37 36 36 37 35 38 37 35
30 33 45 56 53 48 29 27 35 34 31 29 26 30 31 36 35 37 36 42 41 45 30 29 27 28 30 28 23 26 30 33 36 41 42 36 34 35 33 33 36 33 31 38 39 42 38
38 38 54 47 55 50 31 33 38 35 33 30 29 34 33 40 40 37 39 39 38 37 33 29 28 29 33 29 29 29 31 33 31 30 35 33 35 33 34 32 30 30 30 37 38 44 41
47 42 48 69 62 50 34 39 41 38 36 31 33 37 36 40 42 39 37 41 38 44 30 27 26 26 30 28 28 33 35 35 35 34 36 37 34 31 31 31 30 33 32 35 43 49 45
57 58 64 89 83 47 38 46 43 41 37 34 36 39 36 43 40 38 39 40 41 39 29 23 25 26 30 28 25 29 32 34 33 32 33 35 37 32 31 33 34 32 32 36 38 38 34
59 73 82 99 87 47 47 52 46 45 40 40 41 45 39 44 40 37 41 38 47 38 29 23 25 26 26 27 27 28 30 28 29 31 32 32 36 37 32 31 33 35 34 32 32 35 31
60 76 88 97 79 53 58 56 51 48 46 43 49 46 42 40 40 41 41 43 46 36 31 30 30 32 31 31 33 31 30 29 30 31 33 36 41 46 37 32 32 30 29 27 31 29 38
71 83 98 90 71 65 68 59 53 51 48 46 53 47 45 38 41 42 39 44 46 36 33 32 31 32 37 43 43 36 35 33 32 31 33 36 42 50 41 33 31 29 28 28 29 32 33
88 93 98 88 77 71 68 58 57 53 51 54 51 52 48 39 34 37 42 45 45 38 34 34 34 36 42 49 50 47 41 37 36 36 31 35 40 42 39 33 31 30 31 31 29 34 30
93 98 96 83 74 75 66 61 56 53 54 54 51 48 41 42 36 35 40 49 43 40 36 34 35 35 39 47 52 52 51 45 43 41 35 34 38 40 39 37 31 27 28 31 28 26 28
97 99 81 80 78 73 63 61 55 56 53 53 49 46 41 36 34 36 41 48 45 39 37 33 33 34 35 41 47 52 48 41 37 41 40 36 36 36 38 38 35 31 27 26 27 27 26
98 92 87 83 78 66 63 58 54 54 51 53 50 43 36 40 38 35 40 44 39 37 39 33 28 30 34 39 43 44 41 38 38 39 39 36 37 35 34 35 33 32 25 24 24 24 23
98 91 90 80 68 62 61 57 54 52 50 50 54 45 39 41 38 32 33 36 36 36 32 30 29 28 29 34 37 40 40 40 39 37 33 34 34 34 36 33 32 20 22 23 24 23 23
95 88 80 69 64 62 60 56 55 51 50 49 48 47 40 42 35 32 31 34 37 36 33 33 32 30 32 33 40 46 50 45 45 44 40 35 35 39 38 34 25 18 21 25 28 23 23
87 78 70 67 65 61 58 56 52 53 49 47 46 46 46 39 34 30 31 31 37 37 36 37 35 33 33 36 39 45 49 42 40 45 46 43 40 40 44 37 36 25 24 28 29 33 25
81 73 69 67 64 58 57 56 54 53 47 47 46 44 45 41 37 31 30 30 35 36 38 39 38 39 35 37 44 42 40 39 41 43 52 53 53 47 50 47 37 29 31 33 36 32 28
76 73 71 70 68 62 59 57 53 44 44 43 44 51 48 42 39 34 30 28 33 36 38 39 42 42 42 42 45 43 45 42 41 39 45 44 52 54 53 51 45 30 34 36 32 30 30
75 76 77 79 70 61 58 56 45 40 42 42 56 63 59 48 41 36 37 34 34 32 33 41 41 39 40 44 42 43 49 48 44 43 42 42 40 43 40 37 31 32 33 33 34 35 36

GFSGBSN_prec_cthk_030.txt.gz
RH
48 54 53 48 34 30 29 24 20 19 18 17 18 21 20 19 23 20 18 22 24 27 26 23 17 18 21 26 28 26 25 26 26 26 24 21 23 23 22 33 39 38 39 47 50 51 47
42 48 54 55 47 35 32 28 23 21 21 19 19 21 21 20 23 19 21 25 28 28 28 24 18 17 19 33 28 29 26 26 24 23 23 22 23 25 30 41 38 40 39 44 50 47 47
40 39 47 56 58 45 35 32 27 24 22 22 22 22 22 23 21 20 24 28 26 27 29 24 18 16 25 36 31 29 28 28 27 27 29 26 29 33 39 45 40 38 37 33 39 40 50
35 37 33 45 57 54 41 35 30 27 24 24 24 23 23 23 20 22 27 24 23 27 28 25 17 17 33 35 31 29 30 29 31 33 34 34 34 37 42 40 37 35 34 31 30 34 45
23 35 34 33 45 53 46 37 33 29 27 27 25 23 24 23 20 24 27 24 23 24 26 23 21 25 36 36 32 31 31 32 37 40 43 39 43 44 41 39 35 37 35 33 28 28 35
18 25 34 29 32 48 47 38 34 30 28 29 26 25 25 23 21 25 27 26 24 26 26 27 30 38 41 36 32 32 32 37 42 46 45 46 46 44 43 41 41 38 34 26 24 26 24
18 18 26 35 29 38 47 38 33 30 29 30 28 26 25 22 22 25 28 28 29 30 27 27 36 43 40 35 31 32 32 41 46 45 49 49 44 42 37 38 34 32 32 35 31 26 25
16 17 25 34 29 30 44 41 32 29 28 30 29 27 25 22 22 25 26 31 31 36 32 36 41 42 39 35 31 33 34 46 50 47 48 43 45 40 39 36 33 30 29 33 40 39 34
13 15 21 29 30 26 41 42 33 29 28 31 30 28 25 22 21 25 30 37 39 39 42 41 40 42 37 38 32 35 36 40 50 47 44 49 43 44 41 37 36 37 38 36 39 37 36
13 14 14 25 33 26 38 41 34 29 29 32 31 28 24 21 22 31 37 39 40 43 41 39 41 36 35 34 34 29 33 41 45 49 43 44 44 42 40 39 38 38 36 35 37 38 39
12 17 16 18 36 28 36 43 33 28 30 34 32 27 25 21 27 35 42 41 47 46 43 35 36 34 36 32 31 31 28 34 41 43 40 40 42 41 40 41 37 40 39 37 32 32 33
18 16 20 20 32 26 36 45 37 26 31 35 33 28 25 24 35 39 43 49 48 41 41 33 31 30 30 27 25 27 30 33 40 40 46 43 39 36 35 40 39 39 39 36 39 35 37
20 20 21 22 29 28 35 47 38 28 33 37 33 29 25 29 40 39 46 48 42 44 35 30 29 27 29 29 26 26 25 29 35 41 46 45 43 41 36 34 38 39 37 37 37 35 31
30 29 27 24 25 31 36 51 39 30 36 37 34 30 27 34 42 46 43 44 38 33 36 27 26 27 30 29 26 27 25 28 33 40 45 42 41 37 36 38 35 32 34 35 28 32 32
40 34 31 32 29 34 44 53 41 32 40 39 35 32 30 38 45 49 42 43 31 33 36 28 27 29 33 30 26 29 32 33 33 36 40 36 35 33 34 34 32 32 29 31 34 39 39
48 46 41 35 37 42 48 60 41 36 44 41 35 33 33 43 48 46 44 36 30 35 36 28 27 25 30 30 28 31 33 34 35 34 33 33 35 32 32 31 31 29 29 31 34 39 29
57 57 48 47 45 45 54 65 40 41 48 46 40 40 39 46 53 52 40 31 28 39 37 29 26 24 25 27 23 28 33 34 34 34 32 30 31 35 32 31 31 32 30 31 30 30 25
64 61 56 55 50 45 66 75 44 49 53 50 42 44 42 51 57 45 39 29 33 40 35 27 24 24 23 25 26 23 28 29 30 28 28 29 34 37 36 33 28 29 32 28 26 27 31
76 67 62 59 60 65 77 80 50 55 52 49 44 52 53 58 51 45 35 29 40 40 33 28 29 32 30 29 32 29 27 27 27 26 29 29 34 39 38 37 31 31 29 25 25 26 27
81 73 65 62 83 73 83 72 61 62 61 56 51 57 60 60 43 39 31 35 42 42 36 34 33 34 34 38 39 40 32 31 30 31 29 30 32 35 37 38 33 32 28 25 23 28 24
80 76 66 88 91 97 84 68 71 73 68 60 56 55 60 53 44 38 32 38 44 44 39 35 33 30 33 42 47 47 42 36 36 36 36 34 32 33 36 39 35 30 26 26 25 24 25
76 76 62 83 96 98 92 81 84 81 74 65 55 58 61 42 41 38 36 42 46 44 38 35 34 32 34 37 39 48 45 43 41 42 39 36 34 36 39 39 36 32 27 25 26 24 23
70 66 79 85 98 99 96 89 86 78 64 65 54 55 51 46 40 38 33 41 47 46 42 36 35 35 35 36 40 47 47 45 41 39 42 39 37 35 33 34 33 39 28 24 23 23 23
72 89 92 98 98 99 93 87 83 73 62 63 56 51 49 48 42 37 34 43 46 46 43 38 34 31 32 35 38 40 42 43 40 39 39 39 36 37 38 36 49 20 20 21 22 21 21
80 89 98 98 99 95 88 81 77 69 66 62 54 48 46 52 43 37 34 45 50 47 43 40 34 30 31 31 34 38 45 47 44 42 38 34 33 41 47 32 23 17 19 21 26 23 25
94 98 95 99 93 89 80 77 71 68 65 65 55 48 44 46 40 34 35 44 49 46 44 43 36 34 33 35 39 44 44 41 44 47 45 40 37 37 43 53 57 26 26 28 29 30 25
97 97 99 97 89 82 77 72 68 66 63 63 57 54 48 46 41 37 34 39 44 42 41 39 36 36 35 39 50 46 40 35 37 39 49 50 51 53 47 52 36 30 29 30 33 31 28
98 97 94 86 81 77 72 66 63 63 63 65 57 54 53 52 47 40 34 32 35 37 38 37 39 40 40 46 48 41 45 36 35 34 39 41 48 54 48 56 52 28 31 35 32 30 30
93 89 85 80 74 70 66 64 62 59 60 63 55 52 48 47 49 43 36 30 30 37 37 36 37 35 39 43 44 44 49 46 41 40 37 39 37 39 37 36 31 32 33 34 35 36 37

GFSGBSN_prec_cthk_033.txt.gz
RH
40 40 43 50 55 53 43 31 28 27 25 23 20 20 20 19 19 19 20 16 18 23 25 25 23 18 17 28 29 29 24 22 21 27 29 29 27 27 28 26 28 35 39 37 57 56 55
34 38 40 44 49 54 54 41 31 29 27 25 23 22 22 21 21 21 19 17 22 25 24 26 24 20 17 28 31 30 24 22 25 27 27 27 29 30 30 33 40 39 38 48 52 49 56
18 32 35 43 43 48 54 53 39 33 30 28 25 24 23 23 21 22 18 20 24 21 22 25 25 21 21 27 36 31 26 28 28 26 30 31 30 29 34 41 39 37 40 44 50 47 42
15 18 27 29 42 42 49 56 48 38 35 31 27 26 25 24 23 22 19 22 23 21 22 25 23 22 22 31 36 30 31 31 31 29 28 30 29 32 38 43 41 38 35 38 42 44 50
13 13 19 24 34 37 40 53 54 42 37 33 30 28 26 26 24 21 20 23 23 21 21 24 23 25 29 34 35 31 31 34 35 35 32 34 35 40 40 46 41 37 40 36 35 35 40
14 15 15 20 26 34 33 44 53 45 37 35 31 30 27 27 24 21 20 23 23 22 23 25 29 35 33 38 40 33 32 35 40 42 40 40 45 47 46 44 39 40 39 34 32 29 34
13 15 19 20 21 28 32 32 46 48 37 34 32 31 29 28 25 22 21 24 26 27 23 31 33 40 42 39 33 32 32 39 48 43 51 44 48 48 42 43 49 41 37 29 32 27 32
11 13 17 18 17 22 30 29 40 47 38 33 33 32 30 27 25 22 22 31 40 40 37 24 30 37 39 35 34 34 31 43 46 52 49 47 51 51 46 44 38 36 33 40 33 28 26
15 11 15 15 16 21 23 29 32 43 39 32 32 33 32 29 25 22 21 28 38 36 42 38 35 39 38 34 33 38 33 45 51 56 50 55 59 48 40 40 37 36 37 38 36 34 29
16 17 16 16 15 16 23 31 25 41 37 31 31 34 33 30 26 23 26 35 41 40 49 41 38 41 38 37 38 39 37 46 50 54 47 52 49 44 46 43 40 43 34 36 37 34 33
15 15 15 13 14 13 23 29 28 40 38 29 31 35 35 30 34 26 40 43 44 45 55 42 40 41 38 31 41 31 35 40 42 43 49 57 49 43 46 49 39 52 36 37 39 35 49
19 15 14 14 12 11 20 24 26 42 40 27 30 38 37 30 25 32 40 48 47 53 59 39 34 31 33 33 32 41 29 32 51 49 44 57 45 45 52 37 39 34 35 39 37 39 42
27 23 15 15 13 13 16 23 26 43 45 27 29 38 37 29 32 38 41 53 46 58 46 32 30 31 31 30 28 31 34 32 37 43 45 44 45 38 36 33 32 38 42 46 50 45 41
36 29 26 22 14 16 15 24 25 44 49 29 31 39 37 29 38 41 50 55 54 41 42 29 29 30 32 34 26 26 35 34 34 43 45 49 47 38 36 39 46 36 43 49 45 38 33
41 38 31 24 18 19 18 23 27 44 51 31 35 39 37 29 37 46 56 57 43 39 38 27 27 29 33 32 31 26 28 33 35 32 50 46 51 41 35 36 33 42 35 37 41 39 33
48 45 40 35 24 23 21 23 31 49 54 33 38 44 35 34 39 53 57 49 41 42 37 27 26 29 37 31 26 26 36 41 39 34 37 48 49 41 33 33 30 31 40 33 31 42 36
53 52 49 46 35 31 29 26 33 52 59 34 47 50 34 39 44 59 55 42 42 38 33 26 27 32 37 36 27 29 39 37 31 31 31 42 36 48 34 31 41 39 30 27 34 39 36
55 58 59 52 45 40 31 28 35 56 61 39 55 51 45 41 52 53 48 39 39 38 33 29 31 33 28 32 28 32 41 39 30 34 36 37 39 48 42 36 31 32 36 36 34 35 29
70 73 71 62 54 47 43 34 38 65 59 48 58 56 58 49 53 57 48 38 46 41 35 30 27 31 28 29 31 26 31 37 33 32 34 32 27 42 44 32 28 26 25 28 30 30 27
77 85 82 72 59 58 53 45 53 75 60 55 64 62 65 59 53 53 51 42 41 41 41 33 27 35 31 33 33 35 35 29 28 27 27 27 26 39 42 48 43 36 28 28 28 29 24
86 86 86 82 68 58 60 54 67 76 58 67 68 50 49 55 51 58 51 42 39 39 42 34 36 33 38 40 40 42 42 31 30 31 29 30 31 32 33 35 38 35 33 30 27 24 27
97 93 94 80 75 67 59 65 85 86 73 79 66 56 55 56 52 56 48 40 37 43 40 32 36 34 41 45 40 50 48 44 38 38 37 35 36 35 35 32 32 36 33 29 26 23 23
95 97 93 83 71 72 70 78 87 97 77 68 70 61 59 65 56 46 46 42 43 52 44 41 34 40 39 44 40 41 53 48 47 45 43 41 39 38 33 33 33 38 29 26 26 25 26
85 89 86 82 72 67 84 88 89 89 68 71 74 72 70 70 57 43 45 44 50 54 45 40 42 40 38 35 34 37 44 48 47 47 43 41 42 44 41 41 52 22 24 22 23 23 24
72 78 80 78 67 79 95 97 91 96 83 84 92 78 71 71 61 48 46 44 52 58 56 44 39 37 34 32 34 42 46 47 41 38 38 39 41 45 52 34 27 23 21 23 24 24 27
68 77 77 63 68 87 98 98 96 98 87 86 93 80 73 62 54 45 46 48 55 57 53 50 44 38 31 32 36 38 41 38 47 46 40 39 39 39 39 53 57 33 27 25 27 32 30
70 67 66 77 86 94 96 96 97 93 90 95 91 75 68 56 50 44 43 46 52 54 50 49 46 43 34 37 47 43 42 36 40 44 54 52 52 52 47 52 38 31 29 28 32 38 33
80 85 87 87 95 97 98 94 91 82 88 92 86 65 61 64 53 45 45 42 50 55 56 47 46 45 40 40 48 43 48 39 37 35 39 43 48 53 50 58 52 29 29 32 38 31 32
97 96 98 95 97 98 87 86 86 83 88 95 81 64 56 56 54 46 40 40 46 57 58 49 43 38 35 39 43 50 50 45 41 42 35 41 38 43 37 42 39 33 32 32 33 33 36

GFSGBSN_prec_cthk_036.txt.gz
RH
28 32 37 38 37 48 52 55 49 36 30 27 26 25 23 22 20 20 19 19 19 16 19 20 20 21 19 23 26 30 26 22 19 18 25 32 34 29 31 36 33 32 39 34 42 46 56
23 24 31 37 37 40 46 53 56 47 36 31 28 27 26 24 22 22 20 20 18 18 19 18 20 21 22 22 30 32 25 21 20 23 30 31 28 30 37 37 33 32 40 42 44 49 52
20 20 21 30 36 36 40 40 54 57 43 36 31 29 29 26 24 23 21 21 18 19 19 18 19 23 25 22 29 39 27 24 24 26 32 32 33 35 38 40 39 42 39 44 48 45 57
18 17 17 17 27 33 35 39 41 57 52 40 36 32 32 29 26 24 22 21 19 19 19 17 19 24 23 21 29 32 32 33 30 29 29 35 32 34 38 46 42 38 42 45 43 43 55
17 16 16 16 16 25 27 31 36 47 56 45 40 36 33 31 28 26 23 21 18 20 19 17 21 25 31 28 30 32 29 36 36 32 29 30 29 30 42 42 43 40 42 37 44 37 47
16 16 15 15 15 15 23 23 34 34 51 48 41 38 34 34 30 27 24 21 18 18 19 18 23 27 26 32 35 40 33 33 36 36 34 31 32 37 40 43 49 47 46 45 35 28 39
14 14 16 17 16 14 16 23 30 30 44 48 41 37 35 34 30 28 25 21 31 40 29 19 33 37 42 42 38 30 29 34 41 40 42 40 41 46 48 52 53 48 45 38 35 30 31
15 15 15 14 16 15 13 19 24 31 33 45 39 35 34 35 32 28 26 27 41 43 38 25 21 32 36 39 38 33 29 34 42 52 57 54 47 60 53 50 51 47 42 45 37 24 24
16 13 12 14 14 13 13 15 19 31 29 41 38 32 32 35 34 27 25 22 35 33 33 31 22 25 34 37 34 33 28 35 51 49 57 65 50 54 52 46 46 39 40 43 41 29 23
14 19 16 11 11 14 13 10 17 21 29 41 40 30 31 36 35 28 26 21 33 36 38 37 32 32 35 36 34 39 39 37 54 58 59 61 55 56 49 45 42 43 49 44 38 42 32
15 18 18 17 15 13 13 12 20 20 28 39 41 30 28 36 42 33 45 36 42 42 55 36 37 36 39 37 39 32 37 38 49 45 50 69 59 53 47 46 50 45 41 35 35 37 41
24 16 17 17 17 17 16 11 9 24 36 36 41 28 26 34 36 35 42 43 44 50 48 39 38 37 42 38 37 39 35 33 42 39 46 51 58 58 56 47 41 41 32 32 32 39 61
27 22 16 16 17 17 16 12 9 20 28 41 50 38 31 35 38 36 39 51 52 47 31 42 40 35 37 39 35 37 37 29 35 49 46 42 48 52 41 42 30 31 41 48 71 67 48
31 30 24 25 21 19 16 13 10 20 25 35 45 32 25 33 44 45 50 60 57 33 40 36 35 38 37 39 32 33 34 34 28 34 47 43 55 43 33 37 57 45 32 50 72 89 55
35 37 35 26 26 25 22 17 12 19 25 37 51 35 27 32 38 46 60 68 48 38 37 46 35 38 36 38 34 32 30 36 35 33 45 55 65 58 48 37 30 41 39 42 52 58 44
46 39 40 37 36 27 25 24 14 19 26 43 51 41 27 34 38 50 62 55 43 36 41 46 37 36 39 36 33 36 32 29 34 35 44 56 75 61 48 37 26 25 33 38 33 38 39
49 51 50 45 39 38 31 24 15 20 30 49 56 46 29 40 41 53 57 49 46 38 42 45 37 39 41 43 36 39 38 40 36 38 39 41 61 63 47 34 26 38 32 27 30 48 53
60 62 55 50 49 41 37 33 24 21 34 55 58 47 35 43 48 41 52 42 41 44 45 39 39 43 33 44 41 38 44 40 32 32 34 33 40 47 40 39 30 36 48 43 51 33 39
64 62 60 56 51 50 47 36 30 25 37 57 54 53 56 45 41 42 48 44 40 45 49 37 36 40 38 34 44 36 44 54 40 29 32 43 36 40 40 47 34 28 24 26 38 39 39
67 62 55 49 55 59 51 47 39 27 40 59 56 66 71 59 35 45 44 43 44 43 43 43 36 37 40 28 35 38 35 41 40 34 30 33 35 30 41 42 52 56 40 30 33 45 34
65 58 54 56 64 63 61 48 46 32 47 70 65 51 54 62 50 49 49 45 42 43 39 49 42 34 40 32 31 36 40 38 33 30 26 27 26 26 30 40 51 48 45 41 36 35 36
62 57 61 62 65 69 67 60 54 39 66 76 64 52 50 58 57 55 49 44 44 47 41 50 47 41 46 39 36 42 45 46 33 28 28 29 32 34 37 35 36 34 35 35 34 32 30
72 76 79 79 70 72 74 64 62 49 81 73 62 56 62 58 57 58 49 55 52 51 46 47 42 47 44 50 51 50 51 63 54 46 39 42 42 44 42 35 33 35 26 26 28 27 29
74 74 79 85 80 75 70 69 63 62 79 65 68 62 70 64 54 44 54 54 54 45 65 51 50 50 52 48 47 47 42 52 53 52 51 51 49 51 51 45 48 25 25 24 24 24 26
87 88 95 98 97 82 72 71 60 66 78 74 81 80 75 79 54 60 61 61 52 48 72 52 58 56 55 39 39 38 39 42 46 47 48 49 49 54 62 44 31 28 25 24 25 26 27
85 94 96 93 92 84 72 63 56 77 76 81 92 83 86 83 62 50 53 58 52 57 75 55 55 54 46 41 42 37 44 38 45 42 36 36 43 51 48 55 55 37 30 27 25 34 32
83 84 86 86 89 87 73 54 68 80 80 86 93 85 98 82 74 69 54 53 60 56 86 53 48 45 42 46 45 41 38 40 53 53 58 53 52 56 53 58 45 37 33 30 37 43 37
73 72 74 78 87 81 63 56 87 88 87 90 88 96 86 88 71 68 64 57 60 56 87 55 50 47 46 45 44 45 50 43 39 38 44 46 54 58 57 64 58 33 32 34 41 37 33
66 67 70 79 83 66 48 80 97 91 87 84 78 74 85 92 77 66 65 56 57 63 63 52 43 43 40 43 44 48 52 47 42 43 36 43 39 46 42 48 38 35 34 35 35 34 35

GFSGBSN_prec_cthk_039.txt.gz
RH
25 26 30 34 35 36 36 36 46 52 50 39 31 28 26 26 25 25 22 21 18 18 17 16 15 15 15 18 20 27 24 23 19 17 20 29 34 33 31 34 32 32 36 44 52 48 57
26 26 25 26 29 34 35 38 38 47 51 48 37 32 29 28 28 27 25 22 18 18 17 17 15 15 17 22 26 25 26 22 20 19 23 30 31 33 34 34 40 34 42 48 58 53 54
25 25 25 24 25 28 35 36 37 38 49 53 45 37 33 30 30 29 27 24 19 18 18 17 15 16 17 17 27 28 28 26 20 23 29 31 34 33 34 38 44 45 44 51 52 48 60
24 24 23 23 23 21 25 33 34 35 36 48 53 42 36 33 32 32 29 25 20 18 19 17 15 16 15 19 24 27 28 30 31 25 28 32 34 34 33 38 41 43 43 49 47 59 57
22 21 22 21 22 20 19 24 29 30 34 38 48 45 40 35 34 33 31 26 20 18 19 17 16 24 22 19 22 25 28 33 38 34 31 31 29 27 35 41 45 44 44 44 46 49 49
21 21 21 20 18 18 17 17 24 27 28 34 44 45 39 37 36 35 33 26 19 19 20 17 17 24 18 22 24 30 33 33 39 37 36 33 33 33 39 43 47 42 44 45 43 44 40
17 18 17 17 18 17 15 15 16 25 25 33 39 43 37 35 35 36 34 27 34 39 35 21 22 23 28 29 28 29 30 31 41 46 48 49 45 50 48 48 44 48 51 47 44 41 39
20 20 18 16 15 15 16 15 14 17 22 32 37 43 36 32 35 36 35 28 37 37 34 29 20 26 26 28 30 28 30 35 44 48 52 63 55 55 52 48 50 53 48 48 41 37 31
25 19 17 18 17 16 15 15 15 15 19 29 33 42 39 29 33 34 34 27 35 32 31 20 17 22 25 27 26 28 32 37 45 52 53 56 58 57 58 56 54 49 51 46 43 36 25
21 20 16 18 17 15 15 17 15 16 21 23 30 36 41 29 31 37 35 27 26 33 40 25 29 21 26 29 27 30 37 37 41 52 53 55 58 57 59 52 50 47 46 49 45 46 40
20 20 19 16 16 20 18 14 16 16 20 23 32 32 39 29 32 42 46 37 41 41 57 33 31 29 26 32 32 32 40 46 41 44 48 55 58 57 56 52 47 49 46 46 46 46 45
27 25 22 18 16 19 18 17 15 13 19 20 30 28 41 27 29 47 53 45 45 56 58 35 31 29 32 31 31 35 44 45 40 45 46 46 49 55 54 47 47 41 38 37 42 46 51
30 27 27 26 18 16 18 18 17 10 14 25 35 37 35 29 27 46 46 52 56 65 28 35 32 31 33 31 30 35 39 41 41 43 48 50 51 52 49 43 43 38 42 54 58 64 57
39 33 29 27 28 16 17 18 17 14 11 17 36 43 45 27 30 41 43 58 67 36 32 33 35 34 32 31 31 33 40 43 34 34 50 50 57 56 47 51 58 45 43 64 69 75 62
50 43 32 30 29 27 18 16 18 16 12 20 30 46 41 51 58 58 63 64 48 36 28 34 37 36 33 29 38 37 34 35 36 29 38 52 57 61 49 53 55 46 46 44 56 61 67
51 45 44 36 35 32 26 23 24 22 14 23 34 42 39 38 41 58 57 55 46 35 43 43 42 34 33 31 38 42 37 28 38 35 37 45 54 56 53 52 40 34 41 52 46 46 43
54 48 41 42 36 37 37 28 26 25 16 26 38 50 33 49 39 53 53 53 40 37 47 46 44 40 32 37 37 41 35 31 34 43 46 47 47 57 59 55 40 37 35 31 30 42 53
61 54 43 42 46 46 41 35 38 29 22 29 39 51 40 53 47 51 52 48 36 39 47 48 44 40 33 36 47 38 33 43 40 40 49 44 48 63 54 41 39 33 39 53 52 36 46
60 58 42 39 48 49 50 42 44 37 28 34 40 48 56 51 41 50 46 42 37 43 51 48 44 37 34 38 56 50 40 47 52 50 40 35 39 53 51 51 44 41 33 34 42 45 45
64 59 43 47 59 60 53 52 50 47 33 37 48 62 65 53 35 41 45 34 36 38 55 47 44 39 38 38 46 53 45 48 51 48 40 35 36 38 39 32 41 45 53 39 30 47 40
61 55 47 53 62 62 58 62 50 48 45 45 52 53 49 56 52 43 46 34 37 44 54 48 49 37 38 44 46 46 46 43 42 38 37 37 34 31 28 27 38 42 54 47 42 40 44
61 51 50 59 64 63 54 67 58 52 49 54 62 51 52 55 56 51 43 35 35 40 52 47 50 38 34 42 40 43 41 36 34 33 30 30 33 27 29 25 33 37 47 44 41 38 37
66 54 55 63 67 59 53 52 66 59 60 56 60 53 56 49 64 58 41 30 35 38 49 46 44 45 35 41 44 42 43 41 38 39 32 28 30 37 37 32 31 34 26 26 26 34 34
61 57 60 62 57 53 50 53 68 65 56 55 56 66 67 53 60 46 44 37 40 36 52 40 45 49 49 53 55 53 48 49 48 64 53 44 45 53 52 43 40 25 25 25 29 31 32
62 59 55 56 56 56 57 64 74 70 51 54 63 71 74 69 55 58 45 45 42 44 52 53 51 54 57 51 58 64 64 55 47 63 53 55 65 62 57 53 38 32 28 27 28 31 28
57 60 70 80 77 70 70 76 71 56 50 61 70 73 78 89 62 47 48 50 53 61 68 63 55 64 53 69 63 57 59 44 40 39 44 49 52 56 59 56 51 38 32 29 29 40 33
67 77 76 83 88 72 76 76 72 58 55 64 75 81 69 82 74 68 50 40 55 63 69 64 75 70 58 71 71 53 40 31 45 46 48 52 54 55 59 58 48 37 34 32 39 43 36
86 85 90 90 96 96 88 86 74 57 57 66 78 74 81 85 84 77 66 55 67 63 64 66 83 78 72 58 60 45 44 37 49 50 51 50 60 60 64 64 55 35 33 35 38 35 35
86 93 91 90 97 98 94 82 66 53 47 67 91 80 68 79 87 83 66 56 62 57 60 67 79 76 61 50 43 44 44 46 44 51 41 46 42 46 45 47 36 32 33 35 35 36 38

GFSGBSN_prec_cthk_042.txt.gz
RH
26 25 25 24 28 31 32 31 34 34 43 47 48 39 33 29 27 26 26 26 25 21 18 16 16 14 12 12 16 22 23 23 19 17 17 25 34 36 38 35 36 33 36 40 47 51 53
29 28 26 25 24 25 30 31 35 38 37 46 49 47 37 32 30 28 28 28 27 23 19 17 17 14 13 16 22 23 24 24 19 17 21 30 36 38 36 39 34 36 43 41 43 54 55
30 35 31 27 25 24 25 27 32 38 38 38 45 51 46 38 34 32 31 30 29 25 19 17 18 14 13 14 22 23 27 29 23 20 28 33 36 37 36 37 40 49 46 51 59 61 56
23 25 36 29 33 26 24 24 26 35 36 36 40 45 48 42 37 34 33 32 31 26 20 18 18 15 12 12 17 22 26 29 29 27 27 30 32 36 35 38 42 45 49 63 61 57 56
21 22 22 24 31 26 27 25 27 30 31 33 37 41 46 43 38 37 35 33 31 27 21 18 19 18 12 13 17 24 29 31 30 32 32 29 31 33 34 43 44 45 50 50 55 52 50
21 21 21 21 23 25 23 28 26 26 40 30 26 35 42 42 38 37 36 35 31 29 25 20 20 17 14 20 22 26 31 32 34 34 37 36 35 35 38 49 49 45 44 46 46 49 49
33 25 20 21 22 23 24 24 22 19 23 31 31 37 43 43 37 35 36 35 36 43 36 26 20 16 22 24 23 26 29 28 31 37 43 45 42 45 48 48 52 47 46 50 49 46 47
28 32 31 20 18 20 22 23 23 21 16 21 23 31 35 43 36 35 37 36 40 37 32 27 29 21 23 26 28 25 27 27 31 41 54 55 48 48 50 53 48 48 52 52 46 44 43
20 23 29 31 26 25 21 20 20 19 18 17 24 28 32 44 43 34 37 40 37 39 36 22 20 17 21 26 27 24 26 26 33 47 55 53 49 44 49 49 54 52 52 51 47 46 42
28 22 21 24 28 29 31 25 21 18 18 16 20 27 32 40 41 34 45 45 31 35 42 27 22 17 22 25 27 26 27 28 33 44 49 49 47 50 55 57 55 50 47 47 46 47 46
29 28 27 22 21 24 26 26 26 21 21 22 21 27 31 36 34 40 50 48 40 41 51 30 27 24 21 25 26 26 31 31 35 38 49 46 51 49 52 54 50 49 47 51 50 47 46
39 34 28 28 25 20 20 20 22 21 16 17 24 28 36 33 35 46 54 51 49 54 55 34 31 27 23 27 30 32 35 34 37 42 44 48 48 50 52 53 52 51 52 51 52 51 52
38 39 37 29 28 28 20 20 19 19 15 15 20 31 36 31 40 40 53 57 58 62 30 34 31 29 27 27 31 34 35 35 37 46 47 50 52 49 50 54 50 48 47 53 56 61 51
30 38 40 39 30 28 28 21 19 19 17 13 20 24 39 19 43 41 55 64 65 44 32 34 34 32 30 29 29 33 31 36 35 38 48 57 57 49 50 51 50 47 45 55 50 59 53
31 37 43 44 38 33 28 28 24 25 20 16 17 30 36 34 48 38 53 68 55 42 28 34 37 38 34 31 30 31 30 35 34 33 44 55 57 53 51 49 52 49 47 46 61 61 63
48 43 53 50 46 36 32 31 28 29 28 20 23 29 30 28 59 47 57 55 48 27 37 39 40 37 38 32 33 34 33 29 30 31 36 49 54 52 50 49 47 47 44 54 58 54 56
65 54 54 56 49 48 34 37 38 27 29 26 28 38 31 28 55 58 61 55 47 28 44 45 45 44 37 33 30 32 33 31 32 34 40 46 46 49 48 47 51 48 41 34 43 53 50
83 64 58 56 59 52 42 34 39 38 37 32 34 42 38 32 53 55 55 60 58 41 45 51 54 48 39 36 33 32 32 31 36 34 42 48 53 54 47 42 51 47 40 44 58 41 45
96 75 60 61 58 61 45 37 41 41 37 33 39 41 50 33 50 44 47 54 50 32 47 52 52 48 41 38 38 35 35 40 44 39 37 43 51 58 46 52 46 45 40 47 51 61 49
96 77 65 59 65 61 50 37 51 49 46 38 47 52 64 45 34 36 41 45 44 28 45 53 55 52 48 39 41 39 43 42 46 48 52 49 48 42 43 47 47 49 50 52 47 52 45
96 80 70 61 63 62 52 42 52 52 54 47 50 49 43 51 43 40 42 45 40 36 43 47 57 54 52 42 43 43 49 46 46 50 57 54 46 39 34 34 35 36 38 48 52 47 45
97 87 76 66 60 60 47 39 56 59 62 61 60 50 42 41 39 42 41 43 36 28 36 44 54 50 49 45 41 46 38 44 42 45 49 51 46 42 39 35 33 34 31 32 46 50 43
97 85 77 68 59 52 48 51 59 64 74 60 63 49 51 37 44 44 40 41 31 25 32 46 52 53 48 42 39 41 37 41 44 44 44 45 44 42 40 35 31 36 24 30 30 44 41
97 89 79 68 51 46 60 71 73 74 76 58 61 58 58 52 47 42 41 43 28 27 31 43 50 52 47 46 44 43 46 45 41 43 41 43 45 43 45 35 44 27 21 21 24 25 26
98 91 87 64 51 55 65 70 71 72 71 62 61 62 63 54 47 50 53 47 31 30 39 45 54 53 56 51 53 53 55 48 50 51 55 53 58 60 54 53 42 30 26 24 28 35 34
97 92 80 64 55 55 63 61 71 73 66 61 60 61 68 67 49 43 54 52 40 36 42 53 57 60 63 65 62 57 65 59 60 51 56 50 63 62 72 61 54 34 31 30 31 44 36
85 74 64 58 52 55 57 55 54 58 59 59 61 74 74 64 55 53 45 45 48 38 46 64 69 66 57 70 71 66 66 55 63 58 52 54 59 59 68 62 49 33 37 35 38 36 38
74 69 63 57 56 56 55 53 51 65 70 63 55 68 74 71 70 74 57 40 44 44 44 57 66 63 71 71 75 70 62 57 54 47 40 39 56 62 65 62 48 35 36 37 38 40 39
75 70 66 66 63 66 64 58 55 67 72 62 61 77 85 66 94 89 67 46 48 44 45 58 56 56 65 73 68 66 66 70 52 51 39 50 43 48 50 49 40 36 34 34 33 33 35

GFSGBSN_prec_cthk_045.txt.gz
RH
29 29 28 29 29 34 36 34 33 31 31 32 38 41 42 36 32 29 28 27 26 27 26 24 18 17 17 13 12 18 20 19 21 17 18 22 32 35 39 38 36 32 41 44 43 48 51
26 29 29 29 29 28 28 32 35 32 31 33 31 38 43 45 38 33 30 29 29 29 28 25 20 17 17 15 19 20 20 20 22 18 20 28 33 37 38 40 39 47 44 52 49 49 50
27 26 26 27 27 28 29 29 29 27 29 35 36 36 43 48 46 38 34 33 32 31 29 25 21 18 17 12 19 19 22 24 22 21 27 33 33 36 40 40 43 46 51 47 49 52 48
25 27 26 25 25 25 27 30 30 27 27 34 36 36 38 44 48 43 38 35 34 33 31 26 22 18 16 11 13 19 22 26 28 26 28 32 33 33 40 41 50 45 47 53 58 54 50
30 23 25 27 23 23 25 30 31 30 27 29 33 34 37 39 43 43 39 37 36 34 32 27 22 19 15 13 12 20 23 27 31 30 31 31 30 31 38 45 51 43 52 55 57 51 53
32 31 24 21 24 24 23 23 31 32 37 38 39 44 43 35 39 42 38 37 37 35 34 32 25 21 15 16 17 22 25 27 32 33 35 32 31 32 37 46 54 48 50 49 50 50 54
30 33 33 29 21 21 23 24 22 23 21 23 38 39 38 51 45 39 37 38 38 43 42 35 24 18 19 20 20 22 24 25 29 34 38 38 38 37 38 44 46 47 49 52 50 47 50
27 25 29 32 32 25 22 22 23 22 19 21 26 33 32 48 48 46 42 39 41 45 41 32 25 28 24 25 25 24 23 24 28 35 44 44 46 39 41 45 42 42 44 47 46 49 47
29 27 24 26 28 31 29 26 22 22 21 19 22 30 32 32 36 50 41 42 42 42 42 32 24 23 22 24 26 25 24 25 28 38 47 47 44 43 45 49 44 42 46 51 53 48 47
26 28 29 24 22 23 28 29 28 25 21 22 20 26 33 37 40 44 45 47 42 41 47 33 28 21 21 24 25 25 25 25 29 32 45 46 43 47 48 51 50 50 50 54 52 48 50
22 26 29 28 29 22 20 25 28 28 26 20 20 22 26 36 34 40 51 48 41 45 42 28 27 24 20 22 23 25 27 27 29 32 38 45 46 48 51 53 55 54 49 50 48 50 49
28 23 29 39 28 30 25 21 24 28 30 26 21 29 30 33 32 38 55 52 53 57 50 34 30 29 23 25 25 26 28 30 31 34 35 44 48 47 48 51 50 49 49 52 55 54 54
37 30 24 37 40 30 29 28 23 23 26 28 25 32 31 36 28 41 49 59 65 67 32 36 34 30 25 26 28 28 30 33 35 38 38 44 51 48 50 52 52 50 52 57 58 62 55
51 42 31 28 35 39 31 29 29 25 24 23 22 25 32 44 34 49 56 67 68 50 38 37 34 34 30 29 30 31 33 36 34 35 44 48 52 49 50 51 53 51 51 57 50 59 50
66 57 46 31 31 38 39 33 30 30 27 26 19 19 30 30 41 45 58 69 56 45 38 31 37 41 35 31 30 32 34 36 35 34 38 48 51 49 52 55 51 47 49 44 55 60 63
73 70 63 47 33 43 46 38 34 32 30 28 24 21 22 17 34 58 62 56 54 37 43 40 43 41 37 36 34 34 34 29 31 32 31 42 52 50 52 52 50 50 47 47 53 50 54
83 78 75 68 46 39 49 48 38 40 33 32 31 29 19 19 39 57 53 53 52 32 39 51 51 48 38 38 35 32 31 32 32 30 33 39 46 50 49 51 46 49 50 45 44 54 59
92 85 80 80 67 46 45 51 49 44 41 41 36 33 27 21 49 56 47 48 43 29 39 53 56 51 43 40 38 30 32 34 32 34 36 34 39 54 48 47 47 46 53 50 56 42 48
99 93 86 84 79 61 53 57 52 47 50 44 40 40 36 24 41 45 48 48 46 36 39 48 51 53 50 45 42 35 32 35 36 35 37 38 42 46 45 48 50 50 54 56 51 47 50
99 98 90 86 80 74 66 65 61 49 53 51 45 49 55 48 24 35 40 46 49 42 42 44 49 56 56 50 41 42 38 39 38 38 39 38 43 41 45 44 48 51 46 47 47 60 48
98 98 95 89 85 86 79 70 61 48 56 58 51 46 41 55 39 39 37 37 43 47 44 50 54 56 57 60 49 46 40 40 43 41 42 42 45 44 46 42 39 48 54 54 50 50 52
98 98 98 91 88 92 84 74 64 54 61 65 58 48 44 43 40 41 44 39 39 40 44 52 50 51 51 60 55 51 44 41 46 51 45 47 54 50 53 46 41 37 41 45 42 38 43
98 98 98 94 94 91 82 68 62 57 68 66 58 50 46 44 45 48 35 35 34 34 34 30 33 54 54 56 59 52 48 46 47 50 47 53 58 55 53 50 46 48 37 35 33 30 31
98 98 98 96 94 91 73 68 61 53 57 66 59 49 59 48 51 34 37 39 37 30 31 22 27 51 52 63 60 55 54 53 49 53 51 49 52 52 56 51 53 29 28 26 26 23 22
98 99 99 96 93 92 69 67 58 43 57 75 66 54 63 59 46 42 42 39 37 27 29 26 27 38 59 65 71 66 68 62 55 53 50 43 45 50 53 58 44 34 31 29 27 26 24
99 99 98 96 93 79 64 56 50 43 58 75 75 58 62 61 49 41 47 42 42 31 29 27 32 49 59 72 77 74 72 64 59 56 54 48 44 53 60 63 65 46 44 37 33 40 31
98 98 98 96 83 65 60 50 43 49 67 80 77 65 63 62 62 58 51 44 45 34 29 27 37 58 64 74 83 72 76 58 64 57 51 59 58 58 68 59 51 41 39 37 39 33 34
98 98 96 89 77 68 53 54 56 64 75 78 79 67 62 59 58 63 57 57 45 38 37 33 48 57 70 72 87 75 73 63 58 51 50 59 68 62 59 51 49 36 38 36 33 38 41
98 98 97 88 77 63 53 63 67 76 87 87 88 72 63 65 77 59 55 49 40 41 43 36 45 51 57 66 78 80 74 68 63 64 52 52 49 48 40 42 41 40 36 35 37 40 43

GFSGBSN_prec_cthk_048.txt.gz
RH
29 28 27 27 29 33 34 39 40 42 42 37 36 37 39 44 44 36 30 29 28 28 28 27 26 24 21 18 16 19 19 16 17 20 19 20 26 32 35 39 32 32 44 44 51 48 53
33 30 28 26 25 26 28 31 36 39 41 41 37 37 36 39 43 43 38 33 31 31 30 30 28 25 23 20 18 19 18 16 17 19 22 26 31 35 39 41 38 40 43 49 48 53 54
33 32 34 32 28 25 25 27 28 30 34 40 38 39 42 39 43 46 45 40 36 34 33 33 30 26 23 18 19 20 20 18 17 21 27 28 30 35 40 42 42 44 50 48 53 51 51
38 36 31 31 30 29 28 25 26 27 27 30 33 37 45 40 39 44 47 44 40 37 36 34 32 28 22 18 17 19 20 20 22 24 28 28 31 32 35 40 46 46 48 53 57 59 50
37 37 37 33 29 28 28 26 25 24 25 26 27 36 47 41 40 38 43 45 38 38 37 36 34 29 22 18 14 19 23 24 24 26 29 28 29 29 31 38 46 50 52 54 60 57 52
29 30 36 37 36 33 27 26 24 23 23 24 27 35 37 39 45 38 38 44 39 37 37 39 38 35 23 20 18 19 23 25 27 30 29 29 30 32 34 38 46 50 50 53 57 54 53
27 28 24 28 34 36 36 32 26 23 22 25 27 34 46 54 48 55 68 63 46 41 42 43 37 28 24 22 20 20 23 24 26 29 34 36 36 38 34 37 41 44 48 48 51 49 51
19 25 25 26 22 27 31 34 34 31 22 23 25 26 32 34 35 48 56 56 50 41 43 45 37 35 29 26 25 22 24 23 25 30 37 42 43 42 40 38 41 44 47 49 49 50 49
20 18 23 28 29 21 24 28 32 34 32 21 22 23 26 31 35 40 54 54 53 55 49 36 35 33 27 26 25 23 23 23 26 32 41 45 43 44 45 39 41 47 47 48 48 46 46
30 24 19 24 27 30 23 23 26 28 30 29 21 21 23 32 36 40 45 49 57 60 55 37 37 32 26 27 25 24 25 24 28 32 39 43 43 46 45 42 43 49 47 46 50 52 53
38 33 28 21 24 26 29 24 25 26 26 27 25 22 23 32 40 39 43 48 42 55 50 35 39 33 27 25 24 24 26 25 29 32 35 38 42 46 47 50 50 49 48 48 49 53 50
46 43 38 32 24 24 28 29 25 27 26 26 26 21 25 28 39 42 64 56 56 59 54 34 37 34 31 25 25 25 27 26 29 34 34 34 40 45 46 48 51 49 51 51 54 53 53
57 51 48 44 36 24 27 35 29 28 24 26 27 24 23 28 28 41 62 59 68 70 33 35 42 34 27 25 26 26 28 29 32 36 36 35 40 45 47 46 49 50 52 59 61 65 58
63 63 57 52 48 36 28 39 35 30 30 26 28 27 21 25 30 45 62 72 73 52 44 42 41 38 33 27 27 30 29 31 31 35 41 41 43 46 47 48 50 51 52 62 55 64 53
87 70 68 63 57 49 32 37 42 35 31 29 28 27 26 24 29 49 65 74 61 48 40 37 42 42 38 31 29 31 32 31 32 33 36 44 44 48 50 51 51 53 55 53 63 62 64
95 94 79 72 67 60 45 33 49 44 37 33 30 29 23 17 34 54 62 56 51 44 43 48 42 43 39 34 32 34 34 30 31 31 35 39 46 51 52 52 55 54 52 53 56 54 50
91 97 97 78 74 70 61 43 43 52 45 40 41 34 19 18 29 50 63 64 52 43 44 50 51 52 42 39 35 34 33 32 33 33 35 39 39 50 52 51 55 57 53 55 57 59 60
88 91 98 97 77 76 73 58 46 49 55 50 45 40 20 17 40 45 50 54 55 40 43 46 54 54 50 43 42 38 34 31 31 32 34 37 41 46 45 47 48 46 48 50 61 55 61
92 90 94 98 84 79 78 66 55 67 58 53 51 44 32 19 36 39 43 47 44 47 44 47 51 54 54 49 47 41 36 29 32 35 36 38 40 42 45 47 47 47 48 48 52 58 61
87 93 92 98 97 85 83 77 68 67 65 55 57 56 59 46 18 32 38 42 44 37 45 40 42 53 57 55 47 40 38 32 35 36 39 42 46 40 38 33 42 49 45 50 53 63 55
81 98 98 99 99 91 88 85 78 71 65 65 64 55 45 49 32 30 35 37 42 36 37 33 36 46 62 62 54 45 44 40 40 40 43 45 47 45 38 40 44 46 42 45 47 50 54
81 95 99 98 99 97 91 88 83 81 80 74 67 54 50 42 27 36 41 39 41 32 40 39 38 34 54 64 57 54 55 51 41 44 46 47 51 45 46 45 45 45 40 46 53 52 47
80 93 99 98 99 98 94 89 88 87 87 76 71 56 46 46 43 40 31 32 36 30 33 44 34 32 45 52 58 57 57 57 51 50 48 50 56 51 54 57 57 53 39 37 35 33 34
81 92 99 99 98 98 96 86 92 83 67 57 65 58 55 55 52 35 31 35 36 27 27 29 38 41 38 55 63 60 64 59 57 52 51 58 61 58 66 64 57 37 32 30 30 28 27
81 92 98 98 98 98 94 88 93 92 90 74 64 66 57 55 51 43 43 39 41 34 31 27 29 36 48 57 69 66 76 66 64 63 54 54 58 65 66 62 46 33 27 35 33 27 26
88 96 99 98 99 98 92 96 98 97 83 68 71 73 63 73 49 47 48 45 41 37 35 28 25 32 39 56 73 75 87 73 72 63 59 56 54 62 66 58 51 34 35 38 39 35 33
89 98 98 98 99 97 96 97 98 90 70 61 70 77 71 70 63 54 48 44 46 39 36 31 25 25 33 46 72 82 81 77 73 67 64 65 64 63 66 60 50 40 38 34 35 31 31
97 98 98 99 99 98 98 98 95 80 67 60 58 81 78 67 74 71 57 46 44 34 34 30 33 33 40 45 61 85 91 81 74 66 61 62 68 69 67 66 58 40 34 30 28 30 31
98 98 99 98 98 97 97 90 82 74 68 59 72 81 84 75 75 74 70 64 47 36 33 37 27 28 27 47 62 74 81 79 69 73 61 62 55 59 54 54 50 41 25 27 31 32 34

GFSGBSN_prec_cthk_051.txt.gz
RH
36 36 32 30 29 29 28 28 29 34 41 44 40 41 42 39 39 44 46 43 36 30 29 29 30 29 26 23 22 23 24 19 16 16 17 19 24 26 32 36 37 33 43 42 44 46 54
42 37 36 32 31 28 28 27 27 27 31 37 43 41 39 41 42 39 44 47 43 36 33 33 33 32 29 25 22 23 23 19 16 15 18 25 28 29 33 37 38 40 47 45 43 48 57
44 41 37 39 34 32 30 28 26 26 26 28 32 40 42 38 40 44 43 48 50 42 38 38 36 34 31 25 22 26 25 20 16 15 21 26 28 30 31 37 37 44 50 52 53 59 55
36 40 42 43 41 38 36 32 31 27 26 25 25 28 33 37 42 43 41 43 47 43 40 40 39 38 33 25 23 27 26 20 19 19 23 26 27 30 33 36 39 47 47 54 57 63 58
23 26 29 35 38 38 36 34 33 30 28 26 25 25 26 30 40 43 42 44 43 42 38 42 41 39 35 26 23 27 25 23 23 22 26 25 25 27 31 32 39 44 45 46 57 61 61
20 20 22 23 25 31 34 34 32 31 30 28 27 24 23 29 34 39 38 45 46 40 36 40 44 42 35 28 25 25 25 25 25 24 26 27 27 28 32 30 39 42 43 45 54 58 61
24 21 17 20 22 23 26 31 32 30 29 27 28 25 23 23 33 41 40 45 48 50 48 41 48 41 33 32 27 25 27 28 27 26 30 32 33 34 31 32 38 43 42 47 51 53 50
28 27 24 18 23 23 23 23 28 30 30 27 24 26 24 25 33 41 47 52 51 58 61 52 45 46 40 37 32 26 26 27 26 26 32 36 41 37 40 39 38 45 43 47 50 50 49
27 28 28 27 19 23 25 27 21 24 29 31 27 23 24 26 33 37 37 45 48 54 59 47 36 41 42 37 31 27 26 26 26 28 34 40 40 43 43 44 40 43 42 43 49 49 51
21 27 30 30 28 23 23 28 27 22 22 27 29 26 21 26 30 32 33 42 43 55 57 45 47 40 38 35 31 28 28 27 28 28 36 37 39 43 46 42 41 41 40 42 50 51 47
28 23 26 34 33 30 25 25 27 28 23 20 26 28 25 26 30 33 37 43 45 50 56 38 50 49 39 35 29 28 28 28 27 29 33 35 38 42 47 44 47 43 44 42 44 49 50
55 45 36 33 38 38 34 24 28 31 29 26 21 26 27 26 26 30 42 47 48 57 58 37 47 49 43 36 32 29 29 29 28 31 34 34 35 37 44 45 49 50 48 47 50 51 53
72 71 65 49 49 47 44 37 26 37 37 30 28 23 25 25 25 30 46 56 61 66 34 37 51 45 39 37 34 33 30 31 30 35 37 34 33 36 43 46 48 51 53 55 55 56 53
76 78 79 76 61 57 50 48 39 27 41 37 30 31 26 24 24 30 47 64 67 51 44 43 47 50 40 33 34 32 31 32 30 29 34 35 36 35 45 45 47 51 53 59 56 55 48
72 74 78 82 80 67 64 55 50 40 35 50 40 33 32 22 24 29 50 64 51 53 46 43 47 51 44 35 33 33 33 30 28 28 32 41 38 39 48 48 47 52 55 53 60 65 61
77 77 79 77 83 87 75 66 58 49 36 59 49 41 34 24 27 34 50 53 49 44 41 49 50 53 49 42 38 37 35 30 30 29 31 36 39 43 47 52 54 52 55 60 61 60 57
71 75 79 82 83 89 94 77 68 61 46 64 58 53 36 28 33 44 48 48 47 48 44 50 56 60 53 49 39 38 35 31 30 30 32 35 37 43 50 52 56 59 58 61 58 56 52
61 59 62 74 86 89 96 94 74 71 56 67 61 59 46 34 45 41 41 40 39 44 50 50 54 56 59 52 47 39 37 32 31 30 31 34 41 46 45 52 52 51 53 56 62 55 57
73 60 52 53 83 96 95 99 88 78 66 75 62 55 59 39 46 38 37 40 39 46 43 43 48 60 59 60 53 47 39 36 35 33 32 36 39 43 41 47 52 51 52 52 52 51 53
80 75 72 58 66 98 97 99 96 83 75 80 71 63 77 60 29 27 39 40 47 43 50 52 49 52 53 58 58 52 47 43 38 36 34 36 39 38 37 34 42 53 50 50 48 56 50
86 90 92 76 60 93 99 99 99 88 82 81 80 64 61 57 46 28 31 33 37 42 40 52 53 44 50 58 64 58 56 55 46 40 41 42 43 41 38 40 43 40 39 46 47 43 48
97 98 97 85 58 95 99 99 99 92 90 88 82 66 48 54 38 41 41 38 36 37 28 40 45 39 32 55 67 65 64 59 51 45 44 46 46 44 44 45 45 41 41 47 45 39 43
93 97 98 87 69 97 99 99 99 92 95 84 72 51 45 43 52 47 37 37 39 36 28 29 35 41 38 30 58 67 67 63 56 52 53 51 52 48 48 50 51 49 44 41 42 38 35
82 98 98 81 70 98 99 98 98 89 86 81 75 61 56 51 56 41 36 44 40 34 26 28 25 32 25 21 46 67 67 64 62 62 57 54 52 52 61 61 59 40 45 43 39 31 30
98 99 95 71 79 99 99 98 98 90 91 89 81 74 56 59 48 42 44 38 44 41 31 22 26 26 28 30 42 55 77 66 65 67 65 60 56 59 65 65 51 38 39 38 37 25 33
98 90 75 87 98 99 98 98 98 94 89 90 88 84 71 66 51 45 48 45 45 43 39 31 27 27 40 54 50 55 63 76 75 73 72 65 60 62 65 67 60 38 38 36 31 30 30
85 83 90 97 98 98 98 98 98 95 91 94 93 86 82 84 63 54 52 48 47 49 41 36 25 30 30 47 67 59 64 68 82 78 75 71 69 64 63 62 49 37 36 36 42 31 23
90 91 95 97 98 98 98 98 98 95 96 96 98 88 79 73 71 71 52 54 52 48 44 40 36 31 38 42 52 61 67 63 71 77 75 70 70 68 64 64 53 36 42 43 41 31 24
89 96 97 99 98 98 98 98 96 96 98 98 94 78 81 75 77 88 70 65 52 41 42 36 23 23 24 33 39 44 60 63 61 71 77 76 63 60 57 53 48 41 41 41 43 28 27

GFSGBSN_prec_cthk_054.txt.gz
RH
45 46 40 38 34 28 26 27 28 30 30 30 35 39 40 42 39 38 37 36 40 40 36 33 32 30 31 31 26 25 28 26 23 19 17 16 17 21 27 33 36 31 35 38 39 47 47
48 47 45 44 41 39 34 31 29 28 28 28 29 32 34 40 41 39 39 37 38 39 41 38 36 34 36 34 27 24 27 25 23 18 16 18 21 23 26 32 36 38 44 45 42 44 52
44 44 45 44 42 42 39 34 32 31 29 29 27 28 28 31 37 36 36 39 38 39 43 43 40 38 39 36 31 27 28 26 23 19 19 21 22 25 27 31 34 39 51 53 51 55 58
32 32 34 37 40 41 40 39 34 31 32 31 30 28 29 28 27 29 36 40 38 39 41 46 42 41 40 37 33 29 31 28 23 20 20 22 24 25 27 29 33 40 48 50 53 58 57
32 28 25 25 27 29 34 39 38 32 31 31 30 29 28 28 28 30 35 34 36 38 38 44 40 40 39 37 34 30 32 29 27 24 22 22 24 25 26 28 31 39 50 47 53 57 56
25 25 26 23 21 22 26 24 29 34 32 28 27 27 27 27 27 30 33 32 30 32 35 37 45 44 36 37 34 32 32 32 31 28 25 24 24 26 27 28 32 43 45 45 57 54 54
26 28 27 25 22 18 21 25 23 23 28 28 25 24 24 25 25 31 33 35 35 37 36 34 44 46 38 39 39 35 33 34 33 29 27 26 27 31 32 29 32 34 41 45 49 51 51
14 20 28 27 24 23 19 22 28 24 21 24 27 24 24 25 25 25 31 34 42 45 43 39 40 45 48 46 48 38 34 36 33 30 28 29 29 36 33 35 35 37 39 41 45 47 49
15 11 13 19 22 24 24 19 26 28 26 21 22 26 26 22 24 26 30 31 39 47 49 42 38 41 46 48 47 40 41 35 33 31 28 29 34 34 38 41 42 39 39 42 43 44 42
33 27 22 17 18 22 28 27 21 21 30 28 23 21 24 24 24 28 32 28 37 44 46 34 38 37 41 36 45 44 35 33 32 30 29 31 34 35 39 42 39 41 40 40 41 43 48
47 44 40 35 26 19 24 29 29 23 24 37 28 26 22 22 28 30 32 31 38 45 36 32 40 41 44 36 38 43 33 32 33 29 30 32 33 36 38 43 41 46 41 44 43 46 46
55 55 53 50 45 38 32 29 35 31 21 31 39 31 28 23 24 27 33 34 40 46 43 28 41 43 48 45 40 43 34 34 34 32 30 34 33 35 36 41 43 47 44 46 45 46 47
61 61 62 63 60 56 55 40 38 40 31 24 38 40 34 30 22 28 36 43 46 44 31 27 41 43 47 49 43 45 36 36 34 34 32 32 32 33 33 39 45 46 51 55 58 55 54
68 68 69 72 72 71 66 67 55 51 44 31 38 42 43 39 28 33 45 53 40 26 30 35 38 46 45 46 48 44 37 37 34 29 32 35 35 31 30 34 46 48 52 59 61 59 54
65 66 66 65 67 71 73 74 72 61 56 47 42 43 42 49 35 37 55 56 26 31 32 34 40 47 52 43 41 42 39 34 33 30 31 34 32 32 32 37 44 49 50 53 57 58 55
74 73 72 71 70 70 68 68 74 77 71 61 46 53 36 47 47 46 58 39 27 31 35 36 32 44 50 51 46 41 40 33 33 30 29 32 35 35 40 42 45 48 52 55 55 62 57
82 81 82 81 78 75 76 76 75 76 86 74 67 66 42 32 60 62 59 31 29 40 39 39 44 46 52 51 45 43 39 33 31 31 31 35 34 42 42 42 46 50 52 53 56 57 57
86 85 86 88 85 83 81 83 85 81 90 95 77 66 56 45 62 64 51 32 29 39 42 40 43 47 50 56 49 43 40 33 31 31 33 34 38 41 39 44 46 54 57 55 58 63 56
74 79 87 88 93 94 87 89 90 91 94 97 87 72 73 66 50 51 44 42 43 43 41 41 41 48 51 59 58 51 45 38 35 36 35 36 39 44 41 42 45 45 47 49 53 53 50
71 68 70 75 87 96 92 93 92 98 97 99 99 85 84 71 36 24 38 55 47 47 34 41 39 44 52 56 62 59 51 44 39 38 38 37 38 37 40 36 40 47 47 48 51 56 49
79 78 80 78 76 73 90 91 92 95 98 99 98 89 64 65 52 26 30 38 52 54 38 42 44 45 48 54 60 64 62 52 47 45 43 44 42 37 33 35 37 35 38 44 48 44 47
90 91 87 86 92 84 90 83 92 95 98 99 94 82 66 60 45 35 28 42 53 55 36 38 37 43 45 45 64 73 70 63 60 56 50 48 45 42 40 37 37 36 35 40 39 38 38
93 91 87 86 93 88 82 66 87 99 99 97 84 84 67 63 56 51 37 31 41 57 42 32 36 42 42 39 56 68 69 70 67 66 63 53 49 47 44 43 45 48 37 36 35 37 37
91 84 69 81 96 82 85 76 89 99 98 88 77 85 74 69 69 47 37 32 32 46 54 44 40 41 42 48 43 48 71 70 70 63 62 59 52 50 50 56 67 33 36 39 39 40 40
88 81 71 95 98 88 94 82 91 99 97 96 84 80 72 73 62 55 48 44 37 41 58 53 39 27 27 33 36 37 53 70 65 65 66 62 58 58 66 50 39 38 38 40 41 38 35
80 82 76 98 96 98 96 78 99 98 99 96 87 81 80 76 62 61 58 52 42 43 53 48 45 32 27 44 60 45 34 46 69 72 68 66 65 66 63 56 61 33 36 41 42 31 35
97 79 76 97 98 98 79 80 98 98 98 96 88 79 84 77 74 71 80 60 49 47 44 52 41 44 40 44 57 46 39 40 53 76 81 74 74 75 65 64 47 37 35 41 45 25 36
98 89 90 98 98 84 79 98 98 99 97 93 90 88 82 85 80 73 82 77 63 59 49 46 49 39 40 45 48 46 46 41 49 53 71 73 73 75 70 77 63 41 43 40 30 34 34
87 90 92 86 74 81 96 98 98 99 94 92 93 87 90 93 97 84 84 96 81 61 49 48 27 29 34 36 40 40 51 50 44 52 50 61 70 69 61 53 48 48 44 44 41 39 37

GFSGBSN_prec_cthk_057.txt.gz
RH
56 54 52 48 46 42 38 34 33 28 25 25 25 28 31 35 38 38 39 34 32 34 36 37 37 33 31 36 33 31 30 30 27 24 22 20 19 22 26 30 33 34 33 38 42 38 42
50 52 54 54 53 50 46 43 39 36 33 29 27 26 27 30 32 35 35 34 33 31 34 38 39 38 39 39 36 32 29 32 29 25 22 20 18 24 25 28 32 39 30 46 41 40 42
40 42 44 46 47 47 47 47 44 40 36 33 31 29 26 26 28 28 29 31 32 32 34 34 40 43 42 39 38 37 33 33 30 26 23 20 22 23 30 27 30 29 34 58 49 46 46
40 37 35 36 36 37 39 42 44 43 39 35 35 32 30 28 27 26 28 29 31 36 35 34 37 41 44 40 38 37 34 35 30 26 24 23 21 23 25 28 27 32 44 50 68 66 46
33 35 38 38 34 33 33 33 33 35 39 36 32 31 32 30 29 29 27 28 29 32 33 34 35 40 39 40 36 36 36 38 33 27 26 23 22 24 30 24 35 38 43 49 54 55 49
30 33 30 30 31 33 38 31 28 27 26 28 33 31 27 27 29 30 29 28 29 29 32 34 36 40 33 37 40 38 36 40 37 32 30 26 23 27 30 29 36 35 46 40 48 59 48
18 16 21 30 26 25 27 21 20 26 29 23 23 26 26 23 25 26 29 35 42 49 45 34 39 34 34 36 40 40 38 41 40 38 32 30 28 31 37 40 33 31 41 41 48 57 49
18 16 14 15 18 24 25 24 21 18 26 30 24 22 23 23 21 21 24 36 40 37 35 34 35 33 37 36 41 40 44 46 45 38 34 37 31 32 39 33 26 27 38 39 40 39 39
23 23 21 18 13 13 20 20 22 21 19 27 28 25 21 20 18 16 24 31 36 36 39 33 33 33 36 37 39 43 47 50 43 39 38 35 37 36 34 34 36 36 40 42 43 51 38
39 38 37 33 30 24 17 13 19 22 24 23 27 28 28 22 15 15 23 26 31 34 37 27 38 38 38 40 39 41 47 47 45 42 38 34 34 32 33 37 42 45 44 42 45 44 43
46 45 45 45 44 40 37 27 18 24 28 26 25 30 28 27 32 26 35 30 29 39 32 30 34 39 38 37 33 39 45 44 46 40 40 34 31 35 34 35 43 43 48 41 41 46 44
53 52 52 51 51 50 47 44 35 22 28 31 26 35 29 28 26 26 41 31 36 39 32 29 36 37 40 37 33 37 37 41 46 44 38 34 35 34 37 40 38 43 43 39 43 44 50
61 60 58 58 56 56 57 55 52 43 30 34 34 37 40 31 22 31 41 43 43 33 23 24 35 38 41 40 38 40 42 41 44 42 40 34 36 34 35 35 37 42 47 54 63 52 50
67 67 66 64 64 63 63 65 64 60 53 42 46 35 43 37 25 29 51 60 45 17 23 32 33 40 40 41 41 42 43 43 45 39 39 36 38 34 34 31 43 47 48 56 63 62 53
75 74 72 71 68 65 65 68 72 73 73 60 60 49 43 45 36 41 57 73 32 16 19 25 38 46 41 39 42 45 42 40 44 39 35 38 36 39 38 34 31 45 54 49 57 58 55
75 75 75 74 71 69 70 69 68 72 77 81 76 66 49 47 51 50 67 66 29 22 22 30 29 43 47 41 40 44 50 44 47 40 35 38 42 41 39 35 36 40 56 55 51 64 61
74 74 74 75 76 75 73 76 76 75 77 86 85 77 60 60 64 71 60 42 35 28 30 27 37 39 47 55 41 44 46 48 45 43 39 38 37 49 44 38 42 41 47 51 53 53 63
74 75 74 78 78 79 80 81 83 86 85 89 88 77 70 70 78 69 50 25 25 34 37 44 52 53 36 50 52 47 47 45 43 43 44 36 41 55 46 38 37 58 51 46 58 58 59
80 81 81 76 80 79 80 82 85 90 96 93 89 82 78 86 79 63 38 28 17 34 45 53 59 56 59 61 57 49 49 51 47 43 45 38 43 47 52 47 44 37 54 55 55 57 69
68 64 63 64 72 82 83 79 87 92 97 99 99 93 90 90 70 60 38 27 29 31 38 52 69 61 59 57 57 59 53 52 49 44 41 41 43 43 44 45 48 41 46 50 53 60 55
57 58 59 59 57 61 81 94 93 94 97 99 99 92 76 73 66 53 53 33 28 34 33 36 63 64 61 60 58 58 58 62 53 49 46 47 48 45 41 45 45 43 46 47 49 50 52
70 70 72 77 79 73 68 93 95 97 99 99 98 87 80 66 66 72 61 44 36 36 34 34 46 75 64 59 62 67 64 64 64 55 48 49 54 47 45 48 45 41 40 39 41 42 43
78 84 89 89 92 95 91 80 80 92 99 99 97 89 85 71 76 77 66 46 33 34 37 34 35 56 71 64 76 73 67 65 73 70 60 58 57 53 54 51 47 50 37 41 40 42 42
71 63 71 89 96 96 98 92 78 79 92 98 89 84 93 79 90 61 63 53 44 38 40 45 51 44 76 70 75 69 72 66 72 71 71 71 60 54 63 58 66 40 40 36 36 37 39
64 65 75 84 97 98 97 96 96 88 90 99 91 90 88 90 73 75 75 61 55 44 64 59 64 46 68 72 58 64 66 72 70 80 72 70 70 65 66 56 46 38 38 37 37 37 43
69 77 87 90 80 97 96 95 98 94 96 98 97 91 89 83 79 74 78 67 60 59 63 75 66 62 63 86 53 51 39 41 52 73 76 74 72 78 69 60 58 36 39 35 39 41 38
79 85 91 96 83 91 94 97 96 98 97 98 98 94 90 82 81 85 86 69 61 60 68 69 59 74 53 52 62 52 46 40 41 49 83 88 81 81 74 64 46 38 38 42 50 29 49
96 94 80 80 76 76 83 94 95 99 94 98 97 91 87 87 82 84 80 80 73 61 65 66 66 74 62 57 51 50 58 56 52 49 57 82 82 81 72 74 69 44 43 42 36 36 44
72 74 72 87 90 87 87 90 87 92 97 98 99 92 88 94 93 87 87 90 89 70 55 62 68 59 50 47 45 49 62 65 57 58 53 66 63 76 67 66 57 54 48 47 50 52 52

GFSGBSN_prec_cthk_060.txt.gz
RH
58 57 59 58 57 54 51 47 41 38 36 34 33 30 26 26 28 29 31 31 30 31 31 30 30 32 34 36 34 34 34 31 31 30 26 24 22 21 26 31 37 34 37 30 37 44 35
52 55 52 54 58 60 56 57 54 49 44 40 38 36 33 30 26 26 28 29 28 29 30 31 30 31 38 38 36 36 36 32 32 32 27 25 22 20 22 25 32 32 33 33 47 52 42
57 46 38 44 48 48 50 53 56 55 52 46 42 38 36 35 33 30 29 29 28 28 28 31 32 32 34 36 34 41 41 36 33 33 29 25 23 20 25 29 34 28 28 38 45 44 42
51 48 52 41 36 37 37 39 43 45 47 50 47 40 36 35 33 32 30 30 28 31 30 30 32 33 34 31 35 41 41 37 35 33 30 27 25 22 21 25 25 29 34 43 49 47 45
36 38 40 42 46 42 42 44 36 35 35 38 42 42 41 34 32 33 32 31 29 30 31 30 31 36 35 34 34 35 39 39 37 34 32 29 27 22 22 26 30 39 38 40 50 49 54
28 28 29 31 35 33 32 31 29 34 38 41 41 39 34 35 30 29 29 30 31 32 37 38 35 39 32 31 35 38 38 40 43 38 34 31 28 24 23 27 33 39 38 40 51 53 48
24 22 21 22 19 23 34 32 33 29 27 30 34 47 33 26 26 23 24 25 38 53 56 48 40 36 30 36 36 33 36 39 44 42 40 37 32 27 27 33 44 37 32 39 48 46 40
21 20 19 18 17 14 17 22 26 23 23 21 24 31 28 29 25 22 16 27 33 47 40 36 39 37 34 37 38 36 33 40 43 44 43 42 37 27 32 34 36 32 23 29 38 47 41
26 27 28 28 26 23 20 12 14 25 21 22 19 26 28 25 21 15 13 15 30 36 39 31 30 27 31 32 36 38 35 39 43 47 51 41 34 42 30 33 30 30 35 35 43 52 48
31 34 35 36 37 38 36 32 24 13 16 20 21 24 27 27 18 19 12 11 13 27 35 20 24 28 30 30 33 35 39 41 43 46 45 40 40 44 39 30 31 44 46 37 40 48 41
40 42 44 44 43 42 44 42 40 36 22 14 23 23 27 29 29 24 36 30 36 28 24 17 21 26 31 30 33 35 37 43 45 47 48 45 43 36 37 28 35 37 46 44 45 37 39
48 51 52 51 50 49 47 47 49 46 43 28 24 29 28 34 27 21 40 45 35 38 26 17 26 26 29 31 33 36 37 39 45 49 49 48 47 37 37 33 29 37 43 40 36 32 45
54 56 57 58 59 59 58 56 58 56 54 49 26 30 32 38 33 39 46 47 45 32 12 13 29 31 29 33 33 36 38 38 41 46 46 48 45 44 38 36 39 33 43 49 61 59 49
63 64 66 67 67 66 65 64 66 63 61 62 52 35 37 40 42 42 55 62 53 17 17 20 22 31 33 34 38 37 38 38 40 42 49 52 50 41 37 34 35 34 40 49 60 81 68
74 75 75 76 78 78 75 74 73 73 70 68 70 56 48 47 49 51 62 70 33 17 18 17 29 31 43 35 40 42 39 39 39 41 48 52 49 41 38 36 29 42 53 42 53 65 71
87 84 81 82 82 83 84 82 81 81 79 78 80 78 67 60 63 67 70 58 29 17 18 29 26 35 42 47 42 45 41 40 42 43 46 50 52 43 44 42 35 30 41 59 49 68 67
91 89 85 81 82 84 86 87 87 85 87 86 81 80 72 77 81 92 78 37 25 15 17 31 34 32 31 50 50 43 42 43 44 45 44 48 51 50 45 42 38 36 36 49 55 53 58
88 84 82 81 81 81 83 86 89 92 95 95 88 78 76 86 92 85 59 37 33 24 24 24 41 40 40 43 61 61 46 45 50 48 46 48 51 51 53 45 41 36 44 39 53 55 57
85 82 81 80 79 79 82 84 87 92 95 96 90 88 88 86 81 66 54 42 44 34 23 30 32 34 43 54 61 53 59 49 53 51 50 52 51 58 52 53 48 37 51 55 49 46 56
84 80 79 79 83 84 82 86 91 93 97 99 98 96 94 90 65 59 51 42 49 42 36 39 42 36 42 63 65 64 64 54 53 51 52 55 52 50 53 61 48 46 44 53 59 68 54
82 79 76 72 71 75 78 80 93 93 95 99 98 91 73 78 68 48 60 47 48 50 33 39 42 50 50 68 73 66 67 66 54 50 49 55 56 52 48 46 49 48 46 33 46 60 61
75 72 70 68 66 66 62 59 81 95 97 99 98 90 77 69 72 76 64 53 47 46 40 30 33 37 38 63 73 80 75 74 72 57 52 55 58 54 54 46 46 56 53 47 42 41 46
71 74 73 70 69 67 67 65 61 86 95 98 98 86 89 72 81 85 69 49 44 52 51 37 24 43 52 46 67 82 83 77 69 67 61 58 57 56 58 51 51 52 49 45 45 46 44
78 80 81 83 83 80 80 77 74 67 86 97 97 83 97 91 86 81 63 62 61 64 50 46 41 36 28 66 80 84 86 84 83 62 63 61 61 59 73 68 66 45 42 42 40 42 40
81 85 84 83 86 89 91 94 93 87 87 99 98 97 93 96 78 78 78 73 70 66 65 57 44 32 35 61 69 81 96 92 82 75 71 69 75 81 74 70 56 50 51 50 45 39 40
89 76 75 79 80 67 69 77 82 95 89 99 95 97 94 88 87 74 80 77 77 76 70 53 44 48 58 70 85 97 93 67 86 68 73 78 78 83 85 74 71 58 47 42 44 46 36
88 89 86 83 81 78 68 72 94 93 97 98 97 98 98 92 86 84 82 84 78 80 67 62 50 68 71 72 59 65 70 62 58 64 70 85 94 92 84 86 64 50 47 51 53 40 40
95 95 92 84 83 86 84 91 97 98 98 98 87 98 98 92 85 92 91 92 81 72 66 56 68 78 97 94 79 59 54 48 43 46 65 74 84 95 85 89 85 61 56 53 39 35 50
80 82 90 92 95 96 97 91 99 98 98 98 91 91 98 98 93 92 83 85 88 84 74 71 60 67 61 91 73 61 58 49 36 53 50 68 63 65 81 74 69 63 62 56 55 56 56

GFSGBSN_prec_cthk_063.txt.gz
RH
60 67 60 56 58 51 50 52 53 49 42 42 42 38 32 30 28 28 28 29 29 28 28 28 27 27 27 29 32 29 34 33 35 32 29 26 25 24 22 24 25 29 30 29 35 34 37
66 64 69 68 56 67 63 58 63 60 54 51 50 45 42 40 37 35 32 30 25 26 28 29 29 31 31 34 27 33 36 36 37 35 31 27 26 25 23 20 23 26 27 29 30 34 39
55 59 58 62 68 58 50 54 61 56 66 73 64 56 50 45 42 40 37 34 30 27 28 29 31 34 36 32 27 32 36 38 38 34 33 27 26 27 23 20 20 25 26 29 36 40 41
59 51 47 48 47 56 65 57 45 41 45 44 48 53 60 55 45 40 39 37 35 32 30 29 30 31 33 29 27 28 32 36 41 36 33 28 29 28 24 22 20 30 32 34 34 40 45
43 44 41 35 35 39 41 50 51 55 51 50 44 39 42 43 44 43 38 35 35 34 32 32 32 34 36 33 32 31 31 36 40 38 37 32 30 29 27 23 22 28 37 39 41 46 53
30 32 33 37 30 26 28 34 36 36 34 31 33 44 45 35 36 33 33 30 31 31 34 44 45 44 35 33 33 34 34 34 39 39 37 36 33 32 32 26 29 34 36 43 47 49 48
21 24 25 21 26 29 24 21 24 36 32 32 30 28 29 35 32 39 31 25 25 40 52 46 43 37 34 37 37 35 35 35 37 40 43 41 35 37 31 22 25 32 35 35 37 42 47
19 19 20 22 23 22 20 18 14 18 25 27 26 24 29 34 32 26 29 29 28 45 39 36 37 41 39 33 39 38 36 36 38 40 45 41 40 37 28 30 32 40 39 31 36 41 47
19 22 26 28 29 30 31 31 27 20 13 19 26 23 21 26 27 15 15 11 15 39 40 25 20 24 30 28 30 34 38 36 36 41 42 41 43 36 33 36 32 41 33 26 32 44 45
20 26 28 28 32 36 37 37 38 37 32 19 18 23 22 25 22 24 16 17 15 33 38 22 13 16 19 26 27 29 35 36 37 41 41 44 47 39 43 45 36 38 36 40 38 48 46
22 27 28 31 38 41 42 43 41 40 42 41 33 17 23 27 29 27 34 22 27 24 34 11 16 19 20 20 24 28 31 37 36 41 44 41 45 42 49 44 40 32 41 43 46 46 40
27 28 31 36 42 45 48 49 48 48 49 48 48 38 28 30 28 20 44 40 36 38 48 13 19 20 21 21 23 28 28 34 36 39 42 43 44 42 45 40 36 33 40 41 41 42 48
31 33 37 45 50 54 54 54 55 56 54 53 54 55 38 38 27 35 54 60 49 47 9 9 22 23 21 22 22 26 33 34 38 44 44 43 45 46 44 42 39 41 41 52 58 54 51
38 41 46 55 60 62 64 64 63 64 63 62 60 61 52 41 36 46 62 70 63 16 14 12 21 34 29 23 27 28 31 35 35 39 45 49 52 45 43 43 40 39 44 52 54 69 68
47 56 61 69 72 74 74 76 76 74 74 73 75 69 67 49 48 57 67 75 37 21 19 14 25 29 39 34 33 33 30 34 36 37 44 46 48 45 46 44 41 45 44 42 50 57 73
59 72 77 82 85 85 84 87 88 88 86 88 86 83 73 68 64 75 76 49 34 23 20 22 25 32 37 51 47 43 44 31 37 38 41 43 52 48 49 43 40 42 40 52 58 72 78
74 86 89 94 96 95 95 94 95 97 98 98 96 91 75 82 77 82 66 42 29 31 29 24 28 27 37 47 57 68 53 38 38 39 43 45 52 54 50 47 41 44 41 43 49 59 76
90 96 97 97 97 96 96 95 95 98 99 98 98 91 83 88 92 77 57 45 41 31 34 32 26 34 35 46 57 58 66 56 52 48 44 46 53 56 51 47 44 43 45 35 52 53 70
96 97 97 97 96 95 94 94 95 97 99 99 98 95 95 89 78 62 53 51 53 51 46 36 25 30 38 40 56 54 64 61 61 60 48 51 51 60 57 51 50 47 47 43 39 44 61
95 95 95 94 94 94 92 93 94 96 99 99 99 97 94 89 70 55 56 58 54 55 52 48 30 22 39 47 47 57 52 63 71 64 58 54 55 48 52 55 54 52 48 46 42 61 55
95 94 93 93 93 92 89 88 95 98 99 99 97 85 77 74 65 68 65 57 55 53 47 45 42 27 26 45 55 54 58 68 73 66 61 62 54 50 53 52 56 59 55 45 43 48 61
95 94 93 92 91 90 86 89 93 98 99 99 95 84 80 66 80 85 78 58 52 51 49 49 45 33 28 38 42 54 67 74 87 76 73 62 62 56 57 55 56 59 57 55 49 45 52
92 87 81 78 77 77 76 78 91 97 99 99 93 84 85 76 87 89 62 48 52 64 56 53 44 35 38 30 44 53 50 74 87 91 81 79 66 67 61 58 57 60 52 53 54 50 45
79 74 73 74 74 77 77 74 76 80 94 99 92 94 98 87 84 63 61 62 67 67 59 56 50 44 22 52 61 54 60 70 86 77 96 91 71 70 76 67 71 47 47 50 55 52 46
70 67 68 68 71 78 81 80 80 73 76 96 98 99 96 97 76 72 71 65 68 71 65 63 48 45 43 47 63 78 87 77 73 76 88 91 80 83 77 72 56 47 44 46 52 51 48
68 72 77 79 79 80 80 82 86 86 85 83 96 99 98 95 89 60 74 69 71 71 70 64 53 56 56 47 55 62 69 78 81 70 82 96 86 81 92 84 69 54 48 47 54 53 47
66 72 77 82 94 98 96 94 97 95 93 93 91 93 99 98 90 84 77 69 70 76 75 70 64 67 62 54 56 68 72 77 85 83 93 97 94 94 91 93 74 60 47 54 62 51 48
81 87 89 90 91 94 95 89 81 93 98 99 91 90 99 98 72 84 80 72 74 82 84 72 78 72 66 66 60 56 57 63 68 72 78 77 82 83 93 96 91 67 62 57 52 52 52
85 84 83 83 87 99 96 93 91 87 92 99 96 90 89 98 93 84 75 80 82 84 83 82 72 62 63 64 64 60 57 59 60 54 58 72 59 64 66 75 72 67 70 65 65 64 62

GFSGBSN_prec_cthk_069.txt.gz
RH
57 61 65 68 69 66 69 71 72 67 62 63 62 54 45 40 38 37 33 31 28 27 27 27 27 27 28 30 32 29 31 29 28 30 32 31 32 32 30 26 26 27 25 23 23 27 31
41 45 50 58 62 68 72 71 73 72 71 67 65 63 58 46 44 42 39 36 33 26 27 28 28 26 30 38 28 32 28 28 25 30 32 33 34 30 30 27 27 27 26 22 24 29 36
38 36 34 40 49 57 61 65 65 73 81 77 74 67 64 67 53 51 43 38 39 38 32 27 27 26 31 29 26 30 30 35 29 31 33 34 35 33 32 29 26 27 23 23 26 32 37
35 40 39 38 38 40 47 54 53 56 65 72 74 74 71 68 65 54 56 53 50 43 37 33 28 31 35 32 27 29 28 34 37 34 34 35 34 37 34 32 30 27 23 31 33 34 37
29 29 30 34 31 28 29 33 43 44 43 47 56 65 63 68 71 64 59 56 51 46 41 36 33 35 38 34 34 34 34 30 36 37 36 36 36 38 36 37 37 33 26 30 33 34 37
21 22 21 19 20 28 28 29 29 35 42 41 43 42 54 56 64 70 66 51 49 48 45 42 46 40 34 33 33 35 37 36 31 37 37 37 39 39 36 41 44 33 30 28 35 35 38
19 19 19 18 17 17 19 20 24 26 32 39 36 48 34 37 49 52 45 61 48 43 50 37 37 42 37 38 37 37 39 38 32 35 39 39 41 36 40 43 36 31 34 36 32 35 36
19 19 19 18 17 17 17 19 26 30 29 34 41 32 38 41 30 39 43 47 46 57 55 40 42 41 40 35 39 39 41 40 38 36 39 42 39 38 41 38 36 35 35 35 31 35 37
21 20 20 19 16 18 17 20 25 25 32 30 31 41 39 32 23 26 29 45 52 60 55 40 29 31 35 35 34 30 38 43 42 41 40 42 41 39 39 38 35 34 38 33 36 34 37
22 22 22 20 20 19 20 20 23 26 29 31 35 35 39 35 27 25 32 35 41 54 44 26 24 19 22 32 34 25 29 40 43 42 43 43 41 42 42 40 37 37 35 40 40 40 41
22 23 21 21 22 25 26 24 25 27 30 36 39 41 40 37 25 21 39 37 45 38 18 12 19 16 21 22 23 27 22 33 42 42 43 42 43 44 46 41 40 38 39 45 45 43 39
23 20 20 20 21 28 30 29 29 29 36 40 43 45 46 40 35 21 21 33 49 41 36 10 14 19 20 24 21 27 26 23 29 41 42 40 42 45 43 44 43 41 46 48 48 45 47
22 21 20 17 18 26 28 29 33 36 40 46 48 50 51 46 43 30 30 42 55 50 13 9 21 18 20 23 23 23 26 28 28 35 41 40 40 41 42 43 45 46 49 60 60 53 45
24 23 22 19 18 25 28 31 39 41 43 51 55 58 54 52 54 38 39 53 55 29 17 15 18 20 24 21 21 21 28 25 25 31 38 41 44 38 40 41 44 47 51 63 60 60 48
26 26 24 21 18 25 30 38 41 43 48 58 63 64 59 61 60 49 51 58 47 39 29 23 25 20 23 26 28 22 24 30 24 30 36 40 38 33 35 41 45 46 52 49 56 61 64
29 28 27 24 23 29 32 38 43 50 57 69 72 70 63 70 70 60 58 54 46 45 40 33 32 34 34 32 34 36 34 35 29 24 31 36 43 39 40 42 44 47 51 58 62 66 67
29 29 29 27 28 34 35 41 51 60 68 80 85 79 66 75 79 72 57 54 50 48 51 45 37 33 42 40 40 39 46 46 46 42 32 33 40 41 43 47 49 48 50 51 54 61 64
27 29 29 27 31 39 44 45 58 68 80 89 92 85 75 83 80 68 54 53 53 52 53 50 42 38 40 45 43 45 49 52 50 57 53 43 44 45 39 42 48 51 54 55 64 62 66
31 30 29 29 40 45 47 50 60 78 89 98 99 95 89 86 78 67 59 60 60 58 57 54 49 46 36 41 45 44 53 54 60 65 61 61 53 50 43 45 48 51 54 54 57 59 57
40 35 33 37 44 48 52 54 64 89 97 99 99 99 97 88 75 71 75 70 70 66 67 63 58 56 49 39 39 48 53 59 63 71 70 69 67 70 61 50 49 52 51 54 54 59 54
47 48 49 54 57 59 62 61 72 96 99 99 98 94 84 79 75 75 78 71 73 75 72 69 62 61 64 60 44 38 42 47 56 67 75 84 76 77 68 62 59 53 54 55 53 50 55
78 79 81 81 77 74 70 68 91 99 99 98 96 91 86 82 81 82 76 71 80 82 77 76 74 74 72 60 55 47 40 46 56 63 72 79 85 85 81 72 63 60 53 53 55 54 52
97 97 98 93 86 83 84 91 97 99 98 98 95 92 91 87 84 80 69 77 80 81 79 74 75 77 74 66 61 54 49 36 40 65 75 78 85 93 95 83 82 73 45 53 55 57 56
98 98 98 97 97 97 98 98 98 98 98 98 94 91 94 84 78 75 80 81 79 81 81 81 84 80 70 69 64 59 54 44 48 63 77 86 84 85 89 81 97 63 65 53 55 50 55
97 98 98 97 97 97 98 98 98 98 98 98 95 93 92 89 86 80 80 82 84 84 86 82 79 74 72 72 67 61 59 57 52 51 54 61 74 75 75 77 67 63 69 65 62 51 52
92 96 96 97 97 97 98 98 98 98 98 98 97 96 95 95 78 86 85 85 84 84 89 84 78 80 83 79 77 69 62 52 59 60 56 61 61 69 77 82 78 46 58 62 71 60 51
90 95 96 94 91 89 91 97 97 96 98 98 97 97 96 89 90 89 82 81 84 84 84 81 77 78 78 82 82 75 67 50 55 71 75 75 76 69 76 87 68 50 46 58 87 58 64
90 95 97 98 93 87 85 83 85 87 91 95 92 96 93 93 93 91 87 81 83 82 81 78 83 81 83 80 78 73 70 58 49 49 60 66 71 74 79 81 66 53 56 74 86 72 70
98 97 96 99 98 94 88 79 76 76 82 88 90 90 94 96 92 91 87 84 83 79 83 82 75 72 71 74 70 72 69 68 60 61 55 63 63 69 70 63 49 45 47 58 81 87 77

GFSGBSN_prec_cthk_072.txt.gz
RH
31 33 36 42 45 49 54 60 59 61 60 63 63 60 59 58 55 52 46 39 35 31 31 30 31 28 25 29 30 26 34 37 35 33 31 30 28 29 33 33 29 28 27 25 24 23 24
28 29 31 31 32 37 43 48 53 59 63 68 71 69 67 64 63 58 54 46 40 36 34 33 32 32 28 37 29 29 29 30 35 32 31 31 31 29 32 34 30 27 28 25 23 24 25
29 30 31 33 32 33 36 37 43 53 54 61 67 72 75 70 67 63 61 58 50 43 36 36 34 32 32 36 30 29 30 30 36 33 31 33 32 30 31 35 30 29 29 26 25 26 28
27 27 27 25 30 33 35 35 35 34 40 44 47 56 61 68 73 70 67 66 75 48 44 35 36 34 36 36 34 34 30 28 32 36 36 36 35 33 33 36 35 32 31 28 28 34 32
28 27 29 29 28 28 28 31 30 31 32 37 37 37 45 48 59 63 67 70 62 65 50 45 42 38 39 40 35 35 35 34 27 40 41 41 41 37 36 36 40 39 36 31 30 31 37
27 26 24 24 24 20 16 18 21 25 26 24 30 37 39 39 44 43 54 54 65 60 60 55 53 49 46 46 37 41 44 43 37 36 42 42 43 41 39 38 44 44 38 32 29 31 38
33 27 21 19 18 17 15 18 19 19 22 28 25 27 36 39 37 38 34 42 56 62 64 60 56 47 48 54 52 45 44 45 42 37 42 41 44 42 41 42 44 40 36 33 33 31 33
35 29 23 19 19 19 19 19 18 17 20 25 26 28 29 36 38 37 42 35 52 60 63 54 54 53 45 44 50 48 43 46 44 40 41 42 42 40 42 43 46 40 39 37 34 33 38
37 34 28 24 23 22 21 21 19 21 22 23 25 27 30 28 32 27 34 44 49 52 60 49 42 43 44 42 46 41 44 47 48 46 42 42 41 41 43 46 46 41 38 41 37 34 38
30 28 31 28 25 21 21 21 21 20 24 26 27 29 33 30 29 26 33 54 54 56 53 36 38 33 39 40 40 38 36 39 45 47 47 43 39 42 43 43 43 43 40 40 38 42 45
27 29 25 27 24 19 19 20 21 21 24 28 33 41 39 36 35 31 36 43 55 61 27 19 31 26 31 33 32 33 35 34 34 44 49 48 46 44 46 45 47 44 43 41 38 47 47
29 28 28 28 20 19 18 20 21 24 26 26 35 40 45 42 40 42 32 32 44 58 38 18 23 30 33 29 27 27 33 40 37 37 43 46 47 47 45 45 48 47 45 43 49 53 57
28 28 29 28 24 20 16 17 22 23 25 29 37 42 53 48 46 48 34 38 52 55 19 17 27 27 26 31 31 26 30 33 38 42 46 46 46 45 48 50 50 49 50 59 62 62 56
28 29 30 29 26 22 19 16 24 25 28 36 38 46 54 51 55 54 39 52 58 37 28 23 21 19 27 25 28 29 39 33 30 33 34 42 49 47 45 46 49 52 52 63 63 66 56
31 30 31 31 28 24 21 18 26 29 30 37 46 53 54 55 61 63 51 59 46 43 37 31 24 24 26 30 35 27 30 34 29 27 32 42 40 33 40 44 46 52 56 51 57 63 67
30 31 31 33 33 27 23 22 26 34 39 47 54 57 55 63 69 70 61 48 49 53 46 34 33 32 32 32 34 39 38 44 37 32 32 34 44 40 40 42 44 46 49 58 65 64 65
32 31 33 33 32 28 26 25 32 37 46 56 64 66 58 71 75 73 64 53 47 47 51 43 37 39 39 36 35 38 47 48 50 46 34 34 40 39 41 45 45 46 48 52 56 62 62
29 31 33 33 28 30 29 27 35 40 53 62 71 75 64 77 79 69 63 58 48 48 49 49 43 41 40 44 41 46 52 51 53 54 50 42 39 41 36 39 45 49 51 51 60 60 66
28 29 36 34 29 31 30 29 37 46 58 65 80 79 83 85 80 70 66 63 61 56 56 54 53 50 47 41 45 42 50 55 54 56 66 57 56 53 45 41 42 44 47 52 57 57 50
31 35 39 38 35 36 32 32 43 48 61 73 89 91 97 90 71 71 72 70 67 61 61 60 60 57 52 51 45 52 54 44 54 55 64 65 68 64 68 60 64 60 51 49 52 57 55
40 44 45 41 43 42 35 37 44 52 62 81 98 97 95 90 70 75 76 70 72 72 69 68 63 63 63 62 57 49 53 52 45 52 56 60 76 77 75 72 62 60 58 53 53 52 56
64 60 63 67 69 57 50 44 53 61 75 83 98 97 96 81 83 88 87 77 76 79 80 78 75 75 73 63 61 56 51 49 53 58 72 70 65 72 74 70 73 63 58 60 56 54 53
97 97 94 89 82 80 78 69 67 73 83 87 97 96 95 90 90 91 77 78 80 82 79 81 85 87 81 75 71 65 56 49 47 51 66 74 79 82 76 78 78 68 63 63 63 57 55
86 89 98 98 97 97 96 96 91 84 82 82 89 97 98 91 89 83 86 87 85 83 85 84 85 84 82 83 79 71 64 58 53 45 45 58 79 87 84 84 88 52 62 60 70 62 56
86 84 92 98 98 98 93 89 86 84 75 81 94 97 98 95 94 94 93 89 91 89 88 85 84 84 88 82 82 80 74 68 59 51 44 61 81 87 88 87 63 53 48 50 61 60 54
88 88 86 94 98 98 98 95 85 80 83 90 94 99 99 98 92 95 96 94 93 91 93 86 85 89 90 89 91 88 80 69 66 61 46 62 70 80 80 86 76 43 44 47 48 43 52
90 90 88 89 96 97 98 98 98 97 97 96 97 99 99 97 97 96 92 95 95 93 91 87 89 91 92 97 92 86 79 65 64 73 76 78 82 77 82 81 61 42 44 47 61 45 55
82 89 92 90 94 97 97 98 98 98 98 98 97 99 98 98 99 98 94 94 94 90 90 86 93 93 91 90 87 83 79 68 63 60 65 78 80 81 84 80 69 45 53 58 62 63 62
90 92 98 94 94 98 97 96 97 98 98 98 97 99 98 98 98 98 94 94 89 82 84 88 84 82 79 82 80 77 77 77 70 73 60 63 56 58 58 50 43 44 49 52 49 50 54

GFSGBSN_prec_cthk_075.txt.gz
RH
28 27 26 27 27 28 29 32 35 38 40 46 48 50 53 56 54 50 52 53 51 46 43 39 35 33 28 28 34 29 35 40 39 36 35 31 28 27 29 28 28 31 29 27 26 24 24
26 26 26 26 26 26 25 24 24 27 31 36 43 44 50 58 60 61 62 59 59 55 53 45 40 36 34 33 38 36 33 35 43 42 38 35 31 27 27 30 30 29 29 28 26 24 25
26 27 28 28 26 27 28 30 28 28 27 28 34 42 43 45 50 57 60 62 62 57 56 55 46 41 37 36 39 39 35 33 35 39 38 36 33 29 28 31 30 31 30 29 27 24 25
28 27 27 28 27 27 27 25 28 29 30 28 26 24 32 39 38 40 49 55 62 59 61 61 60 49 40 42 43 43 42 36 34 37 37 35 35 33 31 32 32 34 34 32 28 27 30
32 36 33 33 29 27 28 27 27 26 27 29 28 29 30 28 34 33 34 35 44 57 61 66 64 62 48 47 49 48 46 45 38 34 39 40 40 38 35 35 35 35 36 35 31 28 32
38 37 36 35 33 25 24 24 25 22 20 20 22 26 23 22 27 34 32 34 34 36 49 60 71 69 60 52 46 52 55 54 50 40 43 43 43 44 40 37 35 38 42 36 32 29 31
37 36 36 33 31 28 22 20 19 18 18 20 23 22 23 20 20 24 32 34 37 38 42 50 65 62 60 61 54 55 60 57 52 45 49 48 45 45 42 41 41 40 37 33 33 33 31
37 37 36 35 30 29 25 22 19 18 19 19 21 22 24 22 21 21 27 31 45 51 50 37 43 56 57 64 57 54 60 57 53 48 50 53 48 44 43 43 42 42 39 35 35 36 33
38 36 36 37 36 35 33 27 24 21 20 20 20 23 28 26 24 23 25 24 42 49 53 43 32 36 41 46 56 58 57 65 56 51 50 49 48 46 44 45 45 45 43 39 38 39 33
38 38 37 36 36 35 33 26 25 22 21 21 26 27 27 30 26 28 31 35 44 46 50 38 39 36 35 39 47 52 48 47 59 56 55 51 47 47 43 42 45 46 44 42 41 42 34
32 31 31 30 30 29 29 21 19 19 20 21 24 26 31 33 34 39 38 37 39 48 25 16 33 33 36 33 35 48 50 49 41 58 55 54 51 49 47 44 44 44 44 44 42 42 38
31 30 30 30 29 29 27 24 19 18 19 21 25 25 36 36 36 43 42 37 35 52 37 15 34 37 46 32 33 41 52 55 49 48 57 52 51 52 49 47 45 47 49 49 49 49 50
31 29 29 29 29 29 26 23 20 15 19 22 24 30 37 38 37 45 46 35 49 56 23 21 27 35 32 50 37 37 46 48 42 46 55 55 42 50 54 55 53 51 52 54 59 58 47
32 30 27 31 31 29 24 22 20 17 22 25 31 36 36 39 43 50 51 46 57 39 34 26 26 31 41 32 44 47 37 39 35 34 36 51 61 45 52 55 54 53 54 58 56 60 52
32 31 32 39 39 29 27 26 22 19 24 27 32 36 37 38 47 54 59 58 44 41 40 36 28 28 34 34 47 37 49 48 36 26 30 41 46 45 52 53 54 61 62 55 58 62 62
36 36 30 29 31 29 29 32 27 23 27 37 40 45 39 42 54 60 63 54 46 54 51 40 40 36 38 36 38 41 48 56 57 46 34 37 43 41 39 45 53 54 54 60 64 62 58
39 33 32 29 37 39 37 33 31 28 29 44 50 54 44 48 59 65 63 57 49 44 59 51 42 41 40 42 40 45 51 53 52 52 41 39 43 43 50 47 45 54 57 56 54 56 53
42 41 31 30 28 38 40 32 31 32 36 51 57 64 51 54 66 65 67 60 53 48 53 55 49 48 47 43 45 46 52 52 51 54 54 49 45 42 40 45 53 56 54 51 57 58 63
33 32 30 29 27 31 40 33 32 38 41 59 64 63 62 64 69 71 74 66 57 57 60 59 58 55 52 49 45 46 50 52 48 48 54 54 56 50 47 42 47 53 56 54 55 55 52
34 29 28 27 28 27 40 41 32 39 44 68 69 72 69 82 65 66 77 70 64 62 66 67 63 60 60 56 53 52 48 48 51 51 47 58 68 71 58 59 61 63 61 62 58 58 52
38 35 32 29 31 39 49 48 38 44 47 73 73 71 63 87 68 66 80 74 74 71 72 73 70 69 69 65 59 51 49 45 39 42 52 51 58 60 68 56 55 56 61 58 59 56 53
67 64 63 60 55 53 59 59 54 51 54 77 74 68 69 81 88 81 91 85 80 83 81 78 77 78 74 70 62 52 48 47 47 42 46 56 65 66 69 59 54 56 53 50 54 54 49
93 91 94 98 95 78 65 65 66 67 58 68 65 62 74 74 83 95 90 84 84 83 81 82 82 83 84 84 74 64 58 52 48 49 51 53 69 73 68 69 68 58 50 54 51 53 50
95 94 92 91 91 97 97 82 75 76 68 57 60 67 77 74 85 87 93 89 83 83 84 85 84 87 88 90 82 71 67 59 55 50 50 52 67 81 75 77 76 43 49 59 56 48 45
93 92 92 97 95 94 98 98 96 90 82 76 70 73 75 75 87 91 87 89 90 90 89 87 89 89 91 90 90 80 74 70 60 55 53 53 61 70 77 77 55 42 40 51 60 50 54
95 93 91 93 97 94 96 98 98 98 93 93 82 78 79 82 78 87 93 89 90 95 95 90 92 95 97 95 90 83 82 73 71 64 62 60 58 70 85 84 66 38 48 58 52 50 54
91 90 84 84 91 98 95 97 98 97 92 92 87 80 79 80 78 89 88 91 92 95 95 94 95 98 96 94 90 84 78 73 72 79 78 70 74 78 70 74 55 42 48 51 54 49 53
83 85 88 86 81 95 95 97 98 95 90 88 84 81 79 80 84 90 90 93 95 95 95 93 98 98 96 92 89 87 82 75 70 68 78 72 73 70 74 76 69 55 63 67 66 54 53
78 83 90 90 84 93 97 96 98 97 93 84 80 75 80 88 93 96 96 91 88 87 93 94 87 88 87 87 85 82 83 80 73 70 65 67 70 73 63 60 56 62 61 52 46 44 44

GFSGBSN_prec_cthk_078.txt.gz
RH
36 34 32 32 31 28 27 26 25 24 24 26 29 27 31 34 34 37 42 42 42 41 41 43 43 41 41 39 36 31 30 36 37 34 32 30 29 29 29 28 28 27 29 31 28 26 24
37 36 35 33 29 28 27 27 27 27 26 24 22 22 23 29 30 30 34 35 40 42 46 47 45 49 52 47 41 39 35 32 45 41 39 37 36 35 30 29 29 28 30 32 29 27 24
40 35 33 31 29 27 25 24 24 25 27 26 24 22 20 20 19 24 27 26 26 32 43 50 51 55 59 53 48 42 40 35 36 48 49 45 40 36 32 31 29 28 30 32 32 29 24
41 38 35 28 25 26 26 26 24 24 24 25 26 28 25 22 22 23 23 25 24 25 27 38 50 58 53 54 60 52 46 41 37 38 44 49 46 42 36 33 31 30 31 32 34 30 26
36 37 37 34 31 36 29 26 25 25 26 25 24 24 26 25 25 24 22 21 23 25 27 30 40 56 52 59 61 65 52 53 47 41 42 43 42 41 40 35 34 32 29 32 37 34 30
39 39 37 36 37 36 33 26 25 25 25 25 25 22 22 20 20 18 18 16 15 22 35 37 43 42 46 61 56 68 64 60 54 51 45 45 45 45 44 38 33 34 35 35 36 34 29
41 39 36 35 36 35 31 33 28 26 23 25 23 19 21 23 22 19 15 13 19 27 25 36 41 42 44 53 65 73 68 65 63 57 51 53 50 46 43 41 40 40 39 35 34 38 34
37 39 37 37 37 37 35 35 35 29 27 25 20 19 21 27 24 21 20 23 27 30 29 22 24 27 37 43 58 77 69 68 63 56 56 60 51 46 48 45 43 44 41 37 36 39 40
40 39 39 38 38 35 36 36 35 30 30 29 25 23 25 26 23 26 30 27 31 30 31 18 24 28 39 37 43 60 80 62 63 63 58 55 52 51 51 49 44 43 43 40 40 41 41
40 39 40 40 40 40 36 36 37 29 31 30 29 29 31 29 28 34 36 36 37 34 41 19 23 26 39 39 35 42 74 67 63 62 60 58 50 53 53 49 45 44 43 41 43 44 42
40 38 36 38 41 38 37 36 36 35 31 28 26 29 30 29 31 39 36 35 37 40 27 15 18 25 47 38 32 38 45 64 58 61 71 60 54 49 50 49 46 44 43 42 43 44 44
48 38 36 34 35 39 32 32 32 30 25 22 19 25 29 32 30 36 35 34 37 44 25 18 23 31 34 42 37 48 44 55 66 58 66 72 60 55 51 52 49 47 46 45 46 46 49
40 48 40 34 35 40 37 38 33 29 22 19 20 26 32 36 32 36 35 35 40 33 23 25 25 24 26 46 44 47 51 52 64 62 56 61 66 61 58 55 53 48 49 53 55 55 48
40 42 50 49 35 35 41 40 31 29 22 18 24 29 35 36 34 39 40 40 43 28 27 29 29 27 29 41 46 51 58 48 54 65 62 61 64 65 58 57 57 54 54 52 53 53 51
37 44 39 48 46 40 45 43 31 31 28 21 27 32 33 34 35 41 46 46 31 35 33 33 29 27 33 36 53 54 54 60 48 49 53 45 45 52 62 54 57 66 63 56 55 56 55
50 39 48 40 44 39 42 42 34 35 32 25 33 36 34 37 42 46 54 42 36 42 41 36 39 34 38 38 45 52 59 67 67 59 38 51 48 39 47 60 54 58 60 64 62 68 65
47 44 47 46 41 44 41 42 44 37 33 30 39 45 36 39 46 53 62 48 41 35 44 43 42 42 40 46 45 57 62 58 64 63 54 44 47 55 50 55 54 59 61 57 56 59 59
53 50 46 39 46 39 41 40 51 44 37 36 44 50 37 55 58 59 61 53 41 33 43 49 49 49 44 47 48 53 67 59 61 67 56 53 51 56 55 52 51 49 52 55 60 61 59
59 53 49 41 38 39 36 37 50 51 40 44 51 50 43 61 62 62 64 58 49 39 46 51 51 48 49 48 50 49 62 61 60 58 58 58 51 50 44 45 50 54 57 58 58 57 58
55 47 41 41 37 35 41 39 40 53 41 49 55 56 50 59 62 64 61 60 56 47 49 55 56 56 51 50 54 51 51 60 57 53 59 57 68 61 52 53 55 60 62 61 61 62 59
59 57 52 47 40 34 36 38 37 52 41 52 58 52 52 61 51 69 65 58 54 52 54 60 59 61 61 58 55 56 51 47 51 52 55 57 63 64 56 55 51 53 52 53 56 61 68
74 71 68 64 58 49 37 33 34 55 56 58 53 56 61 57 62 67 87 86 64 55 62 69 70 73 68 61 58 55 52 52 48 45 53 55 57 59 59 55 45 43 43 44 45 46 51
98 98 96 94 88 86 76 51 46 71 77 78 68 62 69 60 59 73 96 70 58 67 76 81 82 82 77 72 62 58 58 55 54 52 49 55 59 63 61 62 56 53 43 40 41 49 52
95 95 97 98 98 95 95 98 79 63 72 82 82 71 70 60 71 64 78 79 82 81 85 85 87 88 86 83 81 71 64 59 60 55 54 53 56 62 64 66 60 42 41 44 51 48 53
97 95 95 96 99 99 98 97 98 89 69 75 90 84 69 64 57 61 67 82 83 89 89 89 90 92 94 95 90 79 73 70 59 55 57 52 56 64 63 58 44 42 42 42 44 47 53
92 95 97 98 96 97 99 98 98 99 93 78 84 86 81 66 54 56 62 78 94 88 91 92 95 97 97 98 97 84 75 66 66 63 59 59 60 62 68 56 52 44 49 43 38 49 53
90 90 89 90 89 94 95 98 98 98 99 95 88 86 88 72 60 69 59 72 93 89 91 93 97 98 98 97 93 81 75 69 70 73 83 74 70 70 63 66 57 57 58 55 57 65 57
74 70 76 80 85 89 86 93 99 98 98 98 93 90 86 78 62 73 74 81 82 90 92 96 98 98 98 94 85 81 79 74 71 72 85 75 74 74 68 68 69 51 56 54 58 58 56
67 66 67 71 77 88 89 87 99 98 98 99 95 95 94 91 76 68 71 77 87 89 93 96 89 93 90 87 81 79 79 78 75 74 68 80 67 72 65 63 68 83 71 61 63 63 60

GFSGBSN_prec_cthk_081.txt.gz
RH
41 37 35 34 35 33 32 33 33 30 27 25 25 21 19 20 20 22 25 24 24 25 27 30 31 35 36 37 41 40 36 35 36 35 33 32 31 27 26 24 26 27 27 28 29 29 28
44 41 39 39 37 37 37 35 32 30 29 28 28 25 18 18 17 17 20 20 20 19 18 18 24 30 41 42 46 48 44 41 39 45 41 36 34 31 29 28 29 30 30 30 29 31 28
49 48 45 42 39 37 36 34 32 28 26 24 23 23 24 22 19 18 17 15 13 16 16 16 17 20 30 38 50 49 49 46 44 48 46 43 39 39 37 37 32 31 30 30 30 31 31
40 41 44 44 43 42 39 36 30 26 24 22 21 21 20 21 21 20 16 13 15 15 13 15 18 24 30 31 40 52 55 50 45 41 46 52 48 43 42 39 36 33 32 30 30 32 34
54 46 44 45 44 42 40 38 33 26 25 24 22 21 21 20 19 18 18 15 13 12 10 11 20 30 29 28 35 47 57 55 56 47 42 47 51 49 49 47 43 37 34 31 33 32 33
48 49 49 47 45 39 37 34 32 28 28 24 23 22 21 21 20 17 14 11 12 13 20 22 26 31 30 29 31 40 55 61 65 60 51 46 44 48 51 49 44 39 36 36 36 38 32
40 42 42 46 45 46 44 41 31 34 28 26 23 23 21 20 20 20 16 17 27 29 30 19 18 21 22 33 32 39 53 68 70 71 57 50 47 42 44 45 44 46 43 42 40 39 36
39 41 41 40 41 43 41 38 35 36 35 26 29 28 23 18 21 21 25 31 27 25 23 16 15 15 14 26 27 37 52 69 83 77 65 56 58 49 45 47 50 47 46 43 42 41 38
41 43 45 43 41 41 41 40 37 36 35 31 33 30 28 25 24 24 30 32 29 33 32 19 18 20 21 21 22 27 50 61 81 82 71 58 52 60 53 53 52 52 49 44 45 45 44
30 37 49 47 42 40 39 43 40 36 36 29 31 28 30 29 32 39 38 33 35 37 37 30 22 26 26 23 30 32 42 60 80 83 74 66 63 65 65 59 56 57 51 45 47 46 49
37 40 41 46 52 49 47 49 39 38 38 34 33 31 33 32 38 43 44 37 40 42 32 22 24 23 28 27 25 38 38 56 67 80 71 76 65 63 58 59 58 56 53 49 47 47 51
43 41 38 38 39 50 50 47 44 38 38 38 33 30 32 34 36 40 38 39 40 54 36 20 25 26 29 29 31 38 39 46 55 81 75 69 74 68 64 56 58 59 53 53 50 49 52
44 40 39 39 39 40 47 46 45 39 39 35 29 27 23 32 42 38 39 41 45 33 23 27 27 22 22 25 33 37 44 47 55 65 79 75 65 70 67 61 58 56 55 58 57 55 55
46 44 44 43 42 46 47 46 50 42 38 29 26 22 26 31 36 42 40 43 41 25 30 29 23 23 26 32 36 42 52 47 51 64 71 84 78 63 68 66 62 59 55 54 59 60 54
54 51 50 46 46 44 49 48 49 50 43 32 29 23 31 38 46 48 48 50 27 33 29 30 22 22 33 34 37 41 53 54 63 60 68 79 69 64 68 68 70 67 57 53 66 63 61
48 59 60 55 46 58 44 44 57 57 47 39 37 41 38 42 54 59 53 42 32 30 34 27 26 30 38 36 42 43 52 66 63 65 64 64 71 58 59 66 70 68 67 68 66 69 67
56 55 59 58 52 60 58 53 49 61 52 48 43 47 43 41 59 64 55 37 32 32 37 32 32 36 36 41 41 51 69 65 61 62 76 63 64 79 51 57 64 68 67 74 71 65 68
51 62 71 66 66 52 59 54 53 52 63 54 45 54 54 54 63 64 52 40 45 37 32 33 34 36 40 46 48 48 77 58 60 63 73 61 63 63 62 54 56 62 60 64 73 71 65
64 63 65 70 69 57 54 61 54 54 64 64 55 52 57 68 66 61 55 49 46 42 37 36 36 40 45 44 49 48 59 66 66 64 65 65 61 64 82 66 59 56 57 60 61 63 74
66 68 68 66 61 55 51 49 46 45 58 61 63 64 50 67 68 63 57 54 51 47 42 45 46 46 45 45 48 50 54 60 64 61 67 62 70 65 66 65 67 60 61 58 60 67 61
65 66 67 67 62 54 46 40 36 41 56 65 61 53 56 58 56 59 62 71 56 56 51 47 48 50 50 52 48 49 51 54 65 60 58 73 63 67 69 77 66 69 65 64 63 64 69
93 78 77 75 72 68 54 42 36 42 54 62 55 51 52 54 56 55 57 61 61 63 59 49 52 49 51 53 54 60 56 54 55 63 68 61 62 68 55 50 58 56 53 56 56 56 54
98 97 97 89 87 84 75 65 41 39 50 60 57 58 57 63 56 72 69 55 67 71 70 59 62 62 70 59 60 62 59 59 54 55 70 68 67 59 67 63 62 58 44 40 40 43 46
95 96 96 96 97 98 98 92 81 45 41 58 63 70 83 68 73 59 61 73 67 91 94 71 68 76 78 71 65 62 62 58 57 55 56 53 55 62 69 66 68 52 54 49 49 43 58
91 96 97 97 96 97 99 99 97 97 73 72 77 82 85 86 73 65 60 75 94 88 84 77 84 86 89 86 81 72 66 67 61 50 54 53 52 58 61 51 43 44 46 45 40 48 64
90 90 93 94 95 98 98 98 99 97 93 81 81 86 96 93 79 58 64 68 81 86 85 82 89 89 92 94 94 80 71 65 68 60 53 55 56 58 62 58 47 38 49 48 44 48 57
90 92 93 92 92 95 95 98 98 98 98 93 85 82 94 96 84 70 55 59 73 71 90 89 92 93 96 98 94 82 77 72 70 75 70 66 65 63 60 59 50 60 61 50 52 62 65
91 86 73 69 68 76 84 92 97 98 98 99 89 87 83 90 89 73 70 67 61 88 96 95 98 95 98 98 89 82 80 74 64 63 76 73 78 74 69 74 68 54 58 56 72 79 71
66 69 70 72 74 73 73 78 93 95 99 99 99 94 91 95 92 76 63 71 83 89 97 96 87 95 88 85 79 80 83 75 70 72 73 87 66 69 61 60 68 75 63 76 72 64 63